     2.00           OBSERVATION DATA    G (GPS)             RINEX VERSION / TYPE
teqc 1998Oct7 Victoria Andreatta 19981119 00:06:43UTC       PGM / RUN BY / DATE
Linux 2.0.30|PentPro|gcc|Linux|486/DX+                      COMMENT
                                                            MARKER NAME
                                                            OBSERVER / AGENCY
0 TURBOROGUE 98.05.13                                       REC # / TYPE / VERS
unknown unknown                                             ANT # / TYPE
 -1286016.0665 -4719271.7548  4082054.9473                  APPROX POSITION XYZ
        0.0000        0.0000        0.0000                  ANTENNA: DELTA H/E/N
     1     1                                                WAVELENGTH FACT L1/2
     5    L1    L2    C1    P2    P1                        # / TYPES OF OBSERV
SNR is mapped to RINEX snr flag value [1,4-9]               COMMENT
SNR: >316 >100 >31.6 >10 >3.2 >0 bad=0                      COMMENT
L1 & L2: 9 8 7 6 5 4 1                                      COMMENT
  1998    11    14     0     0    0.000000      GPS         TIME OF FIRST OBS
                                                            END OF HEADER
 98 11 14  0  0  0.0000000  0  8G 2G27G13G31G18G19G10G 3
   -423183.897 5   -329753.098 4  23518249.208    23518244.657
   -433352.766 7   -337678.182 6  21718076.829    21718074.597
   -314093.441 8   -244748.463 6  21503126.625    21503126.286
     76349.097 8     59493.558 6  21018567.702    21018566.105
    501583.358 8    390844.289 6  21478467.091    21478464.651
    -41575.385 9    -32396.225 8  20305917.280    20305915.545
    145531.410 4    113401.142 4  24434505.190    24434500.705
    368269.012 5    286963.770 4  23230624.373    23230622.239
 98 11 14  0  0 30.0000000  0  8G 2G27G13G31G18G10G19G 3
   -493119.565 5   -384248.319 4  23504940.434    23504936.562
   -505020.954 7   -393523.488 6  21704438.884    21704436.586
   -357099.642 8   -278259.763 6  21494942.720    21494942.092
     89635.007 8     69846.252 6  21021095.913    21021094.025
    586645.164 8    457126.186 5  21494653.744    21494651.497
    171461.577 4    133606.442 4  24439438.780    24439434.871
    -47316.435 9    -36869.745 8  20304824.756    20304822.987
    443326.126 5    345449.977 4  23244907.209    23244905.022
 98 11 14  0  1  0.0000000  0  8G 2G27G13G31G18G10G19G 3
   -562862.890 5   -438593.683 4  23491668.298    23491664.457
   -576485.622 7   -449210.198 6  21690839.672    21690837.284
   -399575.567 8   -311357.849 6  21486859.540    21486859.112
    103580.610 8     80712.992 6  21023749.679    21023747.672
    672144.158 8    523748.738 5  21510923.624    21510921.141
    197869.352 4    154183.894 4  24444463.985    24444461.004
    -52700.136 9    -41064.812 8  20303800.293    20303798.404
    518809.024 5    404267.971 4  23259271.034    23259268.664
 98 11 14  0  1 30.0000000  0  8G 2G27G13G31G18G10G19G 3
   -632426.140 5   -492798.722 4  23478430.796    23478426.929
   -647764.660 7   -504752.287 6  21677275.576    21677272.997
   -441490.890 8   -344019.112 6  21478883.210    21478883.417
    118178.094 8     92087.695 6  21026527.240    21026525.623
    758074.946 8    590707.765 5  21527275.822    21527273.026
    224749.389 4    175129.369 4  24449579.212    24449575.999
    -57728.213 9    -44982.765 8  20302843.410    20302841.748
    594703.191 5    463406.434 4  23273712.898    23273710.794
 98 11 14  0  2  0.0000000  0  8G 2G27G13G31G18G10G19G 3
   -701793.647 5   -546851.228 4  23465230.975    23465227.429
   -718853.997 7   -560146.543 6  21663747.444    21663745.243
   -482826.623 8   -376228.741 6  21471017.444    21471017.159
    133440.638 8    103980.629 6  21029431.526    21029429.917
    844432.253 8    657999.150 5  21543709.147    21543706.735
    252108.754 4    196448.337 4  24454786.313    24454782.872
    -62388.051 9    -48613.777 8  20301956.627    20301955.278
    671011.356 5    522867.493 4  23288233.251    23288232.065
 98 11 14  0  2 30.0000000  0  8G 2G27G13G31G18G19G10G 3
   -770958.942 5   -600746.163 4  23452069.411    23452064.870
   -789749.522 8   -615389.776 6  21650256.415    21650254.561
   -523582.993 8   -407986.914 6  21463261.683    21463261.573
    149366.682 8    116390.571 6  21032461.997    21032460.633
    931200.424 8    725610.696 5  21560220.722    21560218.625
    -66687.821 9    -51964.227 8  20301138.369    20301136.882
    279951.466 4    218143.951 4  24460084.811    24460079.744
    747705.188 5    582629.035 4  23302827.727    23302826.416
 98 11 14  0  3  0.0000000  0  8G 2G27G13G31G18G19G10G 3
   -839922.496 5   -654483.894 4  23438946.151    23438941.445
   -860469.783 8   -670496.437 6  21636798.951    21636797.191
   -563774.099 8   -439304.617 6  21455613.397    21455613.658
    165940.054 8    129304.919 6  21035615.696    21035614.317
   1018367.445 7    793533.032 5  21576808.117    21576805.297
    -70641.046 9    -55044.640 8  20300386.011    20300384.142
    308277.200 4    240215.954 4  24465475.063    24465469.680
    824776.644 5    642684.889 4  23317493.906    23317491.824
 98 11 14  0  3 30.0000000  0  8G 2G27G13G31G18G19G10G 3
   -908655.180 5   -708041.727 4  23425866.561    23425861.850
   -931000.502 8   -725455.388 6  21623377.369    21623375.771
   -603377.897 8   -470164.681 6  21448077.068    21448076.854
    183195.414 8    142750.682 6  21038899.489    21038897.676
   1105949.275 7    861778.594 5  21593474.349    21593471.325
    -74209.796 9    -57825.466 8  20299706.837    20299705.138
    337112.564 4    262685.064 4  24470962.071    24470956.400
    902251.825 5    703055.357 4  23332236.355    23332234.844
 98 11 14  0  4  0.0000000  0  8G 2G27G13G31G18G19G10G 3
   -977165.625 5   -761426.374 4  23412828.540    23412825.316
  -1001334.559 8   -780261.109 6  21609993.443    21609991.553
   -642436.923 8   -500600.251 6  21440644.256    21440643.834
    201127.674 8    156723.903 6  21042311.823    21042310.103
   1193935.835 8    930339.540 5  21610217.562    21610215.186
    -77398.263 9    -60309.953 8  20299100.193    20299098.636
    366450.157 4    285545.512 4  24476543.117    24476538.513
    980130.746 5    763740.427 4  23347056.250    23347054.361
 98 11 14  0  4 30.0000000  0  8G 2G27G13G31G18G19G10G 3
  -1045500.893 5   -814674.534 4  23399824.036    23399821.846
  -1071492.697 8   -834929.762 6  21596642.726    21596640.641
   -680974.402 8   -530629.424 6  21433310.868    21433310.737
    219702.351 8    171197.710 6  21045846.309    21045844.955
   1282300.006 7    999194.733 5  21627033.038    21627030.601
    -80226.344 9    -62513.620 8  20298561.945    20298560.085
    396265.010 4    308777.863 4  24482216.499    24482211.988
   1058404.587 4    824733.245 4  23361951.078    23361949.371
 98 11 14  0  5  0.0000000  0  7G 2G27G13G31G18G 3G19
  -1113675.767 5   -867797.725 4  23386851.395    23386847.244
  -1141489.689 8   -889472.863 6  21583322.613    21583320.505
   -718990.339 8   -560252.207 6  21426076.658    21426076.613
    238919.961 8    186172.494 6  21049503.364    21049501.959
   1371041.459 7   1068343.898 5  21643919.629    21643916.912
   1137088.779 4    886045.845 4  23376923.889    23376922.328
    -82682.922 9    -64427.809 8  20298094.549    20298092.639
 98 11 14  0  5 30.0000000  0  7G 2G27G13G31G18G19G 3
  -1181713.034 5   -920813.660 4  23373904.617    23373899.883
  -1211338.947 8   -943900.783 6  21570030.782    21570028.994
   -756479.923 8   -589464.836 6  21418942.876    21418942.425
    258769.094 8    201639.370 6  21053280.547    21053279.231
   1460149.753 7   1137778.919 5  21660876.098    21660873.520
    -84781.159 9    -66062.768 8  20297695.285    20297693.578
   1216161.901 4    947661.461 4  23391970.944    23391969.219
 98 11 14  0  6  0.0000000  0  8G 2G27G13G19G31G18G10G 3
  -1249619.571 5   -973727.740 4  23360981.866    23360978.120
  -1281050.264 8   -998221.216 6  21556764.845    21556763.184
   -793449.949 8   -618272.609 6  21411907.672    21411907.579
    -86539.899 9    -67433.187 8  20297360.669    20297358.817
    279227.414 9    217580.932 6  21057173.317    21057172.212
   1549616.448 7   1207493.214 5  21677901.038    21677898.876
        -0.31314        -0.37314  24499772.555    24499769.430
   1295613.408 4   1009571.934 4  23407090.059    23407088.539
 98 11 14  0  6 30.0000000  0  8G 2G27G13G31G18G19G10G 3
  -1317354.939 5  -1026508.458 4  23348092.168    23348089.093
  -1350604.669 8  -1052419.390 6  21543529.145    21543527.090
   -829852.857 9   -646638.475 6  21404980.352    21404980.164
    300335.091 9    234028.481 6  21061189.918    21061188.606
   1639464.398 7   1277504.580 5  21694998.691    21694996.776
    -87928.327 9    -68515.057 8  20297096.329    20297094.317
     31681.895 4     24687.078 4  24505802.441    24505799.828
   1375468.901 4   1071797.233 4  23422285.489    23422284.372
 98 11 14  0  7  0.0000000  0  8G 2G27G13G31G18G19G10G 3
  -1384889.857 5  -1079132.957 4  23335240.534    23335237.706
  -1419992.071 8  -1106487.460 6  21530325.023    21530323.199
   -865685.383 9   -674559.890 6  21398161.494    21398161.250
    322099.795 8    250988.000 6  21065331.605    21065330.347
   1729689.754 7   1347810.025 5  21712167.805    21712165.868
    -88942.636 9    -69305.399 8  20296903.420    20296901.616
     63821.315 4     49730.749 4  24511917.856    24511915.665
   1455718.883 4   1134329.910 4  23437556.557    23437555.227
 98 11 14  0  7 30.0000000  0  8G 2G27G13G31G18G19G10G 3
  -1452239.160 5  -1131612.840 4  23322424.384    23322421.019
  -1489220.736 8  -1160431.854 6  21517151.165    21517149.314
   -900975.126 8   -702058.360 6  21391446.068    21391445.905
    344488.599 8    268433.830 6  21069592.223    21069590.968
   1820263.564 7   1418386.973 5  21729403.787    21729401.547
    -89612.541 9    -69827.377 8  20296775.871    20296774.320
     96373.732 4     75096.220 4  24518112.578    24518109.425
   1536330.734 4   1197144.542 4  23452896.428    23452895.417
 98 11 14  0  8  0.0000000  0  8G 2G27G13G31G18G19G10G 3
  -1519389.583 5  -1183937.755 4  23309646.035    23309642.279
  -1558276.476 8  -1214241.498 6  21504010.315    21504008.530
   -935727.721 8   -729138.276 6  21384832.870    21384832.606
    367504.721 8    286368.484 6  21073972.211    21073970.593
   1911185.045 7   1489234.844 5  21746705.647    21746703.733
    -89925.510 9    -70071.226 8  20296716.221    20296714.572
    129331.638 4    100777.700 4  24524384.949    24524380.615
   1617312.123 4   1260247.127 4  23468306.377    23468305.257
 98 11 14  0  8 30.0000000  0  8G 2G27G13G31G18G19G10G 3
  -1586352.678 5  -1236116.704 4  23296903.388    23296899.657
  -1627154.281 8  -1267912.502 6  21490903.434    21490901.540
   -969934.952 8   -755793.228 6  21378323.525    21378322.913
    391134.902 8    304781.636 6  21078468.492    21078467.400
   2002445.514 7   1560346.864 5  21764072.009    21764070.360
    -89881.471 9    -70036.897 8  20296724.559    20296722.996
    162684.215 4    126766.684 4  24530732.405    24530728.107
   1698649.380 4   1323627.044 4  23483783.999    23483782.799
 98 11 14  0  9  0.0000000  0  8G 2G27G13G31G18G19G10G 3
  -1653127.587 5  -1288149.016 4  23284196.703    23284192.870
  -1695831.503 8  -1321427.201 6  21477834.584    21477832.579
  -1003586.323 8   -782015.045 6  21371919.975    21371919.144
    415370.905 8    323666.864 6  21083080.435    21083079.243
   2094061.619 7   1631735.993 5  21781506.398    21781504.118
    -89480.417 9    -69724.385 8  20296800.964    20296799.379
    196464.537 4    153088.991 4  24537160.080    24537155.767
   1780345.806 4   1387286.834 4  23499329.916    23499329.067
 98 11 14  0  9 30.0000000  0  8G 2G27G13G31G18G19G10G 3
  -1719717.347 5  -1340037.071 4  23271524.362    23271520.960
  -1764310.292 8  -1374787.272 6  21464803.598    21464801.493
  -1036679.014 9   -807801.528 6  21365622.414    21365622.496
    440221.194 8    343030.763 6  21087809.269    21087808.084
   2186047.844 7   1703413.526 5  21799010.824    21799008.699
    -88721.030 9    -69132.659 8  20296945.571    20296943.705
    230700.394 4    179766.233 4  24543673.568    24543671.232
   1862408.381 4   1451231.916 4  23514945.739    23514945.160
 98 11 14  0 10  0.0000000  0  8G 2G27G13G31G18G19G10G 3
  -1786125.751 5  -1391783.824 4  23258887.299    23258884.166
  -1832591.991 8  -1427993.756 6  21451810.006    21451807.724
  -1069200.590 8   -833142.997 6  21359433.786    21359433.634
    465692.305 8    362878.428 6  21092656.390    21092655.314
   2278407.589 7   1775382.113 5  21816586.577    21816584.284
    -87602.967 9    -68261.437 8  20297158.295    20297156.320
    265411.289 4    206813.657 4  24550278.426    24550276.568
   1944846.368 4   1515469.490 4  23530633.137    23530632.080
 98 11 14  0 10 30.0000000  0  7G 2G27G13G31G18G19G 3
  -1852366.770 5  -1443400.150 4  23246282.366    23246278.658
  -1900691.660 8  -1481058.404 7  21438851.019    21438848.816
  -1101160.143 8   -858046.518 6  21353352.102    21353351.709
    491776.230 8    383203.604 6  21097620.010    21097618.728
   2371129.615 7   1847632.996 5  21834230.547    21834228.101
    -86135.727 9    -67118.117 8  20297437.612    20297435.742
   2027648.376 4   1579990.753 4  23546389.632    23546388.187
 98 11 14  0 11  0.0000000  0  8G 2G27G13G31G18G19G10G 3
  -1918441.329 5  -1494886.762 4  23233708.722    23233705.495
  -1968617.046 8  -1533987.252 7  21425925.117    21425922.830
  -1132568.598 8   -882520.614 6  21347375.165    21347375.137
    518490.344 8    404019.824 6  21102703.571    21102701.608
   2464206.220 7   1920160.166 5  21851942.650    21851939.837
    -84323.946 9    -65706.320 8  20297782.356    20297780.324
        -0.89014        -0.72814  24563759.098    24563755.619
   2110818.104 4   1644798.572 4  23562216.139    23562214.930
 98 11 14  0 11 30.0000000  0  8G 2G27G13G31G18G19G10G 3
  -1984357.428 5  -1546249.913 4  23221165.348    23221161.726
  -2036373.048 8  -1586784.118 7  21413031.637    21413029.614
  -1163426.049 9   -906565.359 6  21341503.067    21341502.830
    545835.405 8    425327.701 6  21107907.012    21107905.439
   2557626.361 7   1992955.029 5  21869719.786    21869717.306
    -82158.710 9    -64019.100 8  20298194.138    20298192.485
     36084.014 4     28117.367 4  24570626.540    24570622.222
   2194350.388 4   1709888.890 4  23578111.660    23578110.098
 98 11 14  0 12  0.0000000  0  8G 2G27G13G31G18G19G10G 3
  -2050121.185 5  -1597494.340 4  23208651.091    23208647.058
  -2103946.904 9  -1639439.064 7  21400172.979    21400171.083
  -1193718.698 9   -930169.997 6  21335738.609    21335738.242
    573809.310 8    447125.587 6  21113230.319    21113228.685
   2651382.408 7   2066011.638 5  21887560.736    21887558.525
    -79623.656 9    -62043.706 8  20298676.493    20298675.066
     72586.966 4     56561.198 4  24577573.375    24577569.462
   2278234.764 4   1775253.541 4  23594073.941    23594072.388
 98 11 14  0 12 30.0000000  0  8G 2G27G13G31G18G19G10G 3
  -2115717.084 5  -1648607.977 4  23196168.302    23196164.687
  -2171313.890 9  -1691932.796 7  21387353.258    21387351.554
  -1223438.275 9   -953328.080 7  21330083.342    21330083.247
    602430.016 8    469427.474 6  21118676.621    21118675.055
   2745491.396 6   2139343.268 5  21905469.811    21905467.208
    -76697.274 9    -59763.381 8  20299233.420    20299231.649
    109512.541 4     85334.318 4  24584599.831    24584595.883
   2362473.315 4   1840894.178 4  23610103.693    23610102.694
 98 11 14  0 13  0.0000000  0  8G 2G27G13G31G18G19G10G 3
  -2181191.533 5  -1699626.982 4  23183708.868    23183705.407
  -2238512.366 9  -1744295.214 7  21374565.687    21374563.835
  -1252624.396 9   -976070.482 7  21324529.298    21324529.284
    631651.822 8    492197.751 6  21124237.291    21124236.081
   2839905.599 6   2212912.714 5  21923436.044    21923433.146
    -73423.207 9    -57212.133 8  20299856.388    20299854.655
    146803.311 4    114392.004 4  24591694.940    24591691.692
   2447016.884 4   1906772.484 4  23626191.673    23626190.821
 98 11 14  0 13 30.0000000  0  8G 2G27G13G31G19G18G10G 3
  -2246518.797 5  -1750531.296 4  23171277.411    23171274.403
  -2305527.949 9  -1796515.083 7  21361812.877    21361810.932
  -1281262.522 9   -998385.881 6  21319079.448    21319079.080
    661474.827 8    515436.488 6  21129912.421    21129911.246
    -69784.372 9    -54376.647 8  20300548.802    20300547.600
   2934633.021 6   2286726.222 5  21941461.987    21941459.027
    184486.853 4    143755.799 4  24598866.552    24598864.350
   2531871.723 4   1972893.341 4  23642338.966    23642338.177
 98 11 14  0 14  0.0000000  0  8G 2G27G13G31G18G19G10G 3
  -2311677.013 5  -1801303.898 4  23158878.456    23158875.024
  -2372352.842 9  -1848586.360 7  21349096.467    21349094.506
  -1309350.024 8  -1020272.211 6  21313734.445    21313734.282
    691901.015 8    539145.242 6  21135702.269    21135700.866
   3029667.791 6   2360779.227 5  21959546.458    21959543.837
    -65784.981 9    -51260.203 8  20301309.823    20301308.392
    222579.948 4    173438.692 4  24606116.657    24606113.930
   2617045.171 4   2039262.494 4  23658546.693    23658546.107
 98 11 14  0 14 30.0000000  0  8G 2G27G13G31G18G19G10G 3
  -2376644.596 5  -1851927.943 4  23146515.319    23146511.296
  -2438983.171 9  -1900506.034 7  21336417.045    21336415.205
  -1336875.140 9  -1041720.314 6  21308496.604    21308496.621
    722944.852 8    563335.290 6  21141609.515    21141608.329
   3125019.756 6   2435079.394 5  21977691.531    21977688.915
    -61433.890 9    -47869.703 8  20302137.706    20302135.916
    261093.264 4    203449.036 4  24613446.278    24613442.632
   2702556.023 4   2105894.506 4  23674819.013    23674818.594
 98 11 14  0 15  0.0000000  0  8G 2G27G13G31G18G19G10G 3
  -2441400.526 5  -1902387.063 4  23134192.486    23134189.332
  -2505429.686 9  -1952282.484 7  21323772.817    21323770.979
  -1363818.305 9  -1062714.951 6  21303369.513    21303369.244
    754598.869 8    588000.816 6  21147633.098    21147632.167
   3220681.930 6   2509621.282 5  21995895.715    21995892.982
    -56718.882 9    -44195.636 8  20303034.821    20303033.341
    300024.693 4    233785.187 4  24620853.762    24620850.701
   2788403.750 4   2172789.037 4  23691155.155    23691154.379
 98 11 14  0 15 30.0000000  0  8G 2G27G13G31G18G19G10G 3
  -2505915.619 5  -1952658.504 4  23121916.060    23121912.671
  -2571664.939 9  -2003894.312 7  21311168.616    21311166.796
  -1390160.774 8  -1083241.507 6  21298356.662    21298356.753
    786884.538 8    613158.527 6  21153776.912    21153775.547
   3316682.468 6   2584426.826 5  22014164.108    22014161.400
    -51616.725 9    -40219.894 8  20304005.813    20304004.393
    339401.626 4    264468.462 4  24628344.606    24628342.648
   2874610.156 4   2239963.080 4  23707559.424    23707558.275
 98 11 14  0 16  0.0000000  0  7G 2G27G13G31G18G 3G19
  -2570219.305 5  -2002765.200 4  23109679.160    23109676.279
  -2637700.427 9  -2055350.488 7  21298602.429    21298600.559
  -1415916.882 9  -1103311.158 6  21293455.487    21293455.409
    819787.724 8    638797.430 6  21160037.989    21160036.650
   3413014.436 6   2659490.636 5  22032495.496    22032492.815
   2961161.148 4   2307405.611 4  23724028.993    23724028.455
    -46145.869 9    -35956.856 8  20305046.786    20305045.213
 98 11 14  0 16 30.0000000  0  7G 2G27G13G31G19G18G 3
  -2634311.072 5  -2052706.752 4  23097482.390    23097479.612
  -2703525.523 9  -2106642.748 7  21286076.244    21286074.423
  -1441077.314 9  -1122916.636 7  21288667.673    21288667.381
    853323.690 8    664929.409 6  21166419.888    21166418.913
    -40291.245 9    -31394.773 8  20306160.951    20306159.478
   3509685.071 6   2734818.339 5  22050891.506    22050889.032
   3048060.157 4   2375119.355 4  23740565.254    23740565.052
 98 11 14  0 17  0.0000000  0  8G 2G27G13G31G19G18G10G 3
  -2698209.850 5  -2102497.908 4  23085322.810    23085319.990
  -2769137.715 9  -2157769.080 7  21273590.529    21273588.674
  -1465663.165 9  -1142074.383 7  21283989.178    21283989.081
    887477.581 8    691542.882 6  21172919.286    21172917.738
    -34039.692 9    -26523.391 8  20307350.518    20307349.236
   3606700.239 6   2810414.513 5  22069352.866    22069350.115
         0.23514        -0.05014  24651301.721    24651297.914
   3135294.651 4   2443094.537 4  23757164.878    23757164.924
 98 11 14  0 17 30.0000000  0  8G 2G27G13G31G19G18G10G 3
  -2761962.117 5  -2152174.885 4  23073191.077    23073188.306
  -2834541.911 9  -2208733.322 7  21261144.414    21261142.649
  -1489711.007 9  -1160812.903 7  21279412.822    21279412.750
    922228.221 8    718621.360 6  21179532.041    21179530.691
    -27435.600 9    -21377.303 8  20308607.203    20308605.699
   3704036.027 6   2886260.521 5  22087875.271    22087872.398
     41013.801 4     31958.545 4  24659107.967    24659102.232
   3222835.598 4   2511308.505 4  23773822.766    23773822.956
 98 11 14  0 18  0.0000000  0  8G 2G27G13G19G31G18G10G 3
  -2825571.471 5  -2201740.506 4  23061086.181    23061083.330
  -2899732.354 9  -2259530.999 7  21248739.197    21248737.643
  -1513203.695 9  -1179118.839 6  21274942.071    21274941.906
    -20471.792 9    -15950.914 8  20309932.220    20309930.857
    957579.789 8    746168.096 6  21186258.987    21186257.774
   3801680.610 6   2962347.156 5  22106456.425    22106453.165
     82410.474 4     64215.659 4  24666985.341    24666981.220
   3310679.727 4   2579758.740 4  23790538.943    23790538.595
 98 11 14  0 18 30.0000000  0  8G 2G27G13G31G19G18G10G 3
  -2889028.698 5  -2251187.584 4  23049010.768    23049007.005
  -2964693.315 9  -2310149.841 7  21236377.346    21236376.059
  -1536127.097 9  -1196981.173 6  21270579.853    21270579.984
    993531.808 8    774182.710 6  21193100.317    21193098.871
    -13121.132 9    -10223.078 8  20311331.074    20311329.963
   3899642.275 6   3038680.880 5  22125098.172    22125095.260
    124204.892 4     96782.672 4  24674938.542    24674936.622
   3398826.145 4   2648444.519 4  23807312.942    23807312.309
 98 11 14  0 19  0.0000000  0  8G 2G27G13G19G31G18G10G 3
  -2952345.533 5  -2300525.256 4  23036962.205    23036958.501
  -3029438.497 9  -2360600.546 7  21224056.555    21224055.382
  -1558499.298 9  -1214414.002 7  21266322.629    21266322.805
     -5395.671 9     -4203.189 8  20312801.354    20312799.940
   1030069.629 8    802653.800 6  21200052.996    21200051.714
   3997907.722 6   3115251.316 5  22143797.673    22143794.131
    166384.424 4    129649.766 4  24682965.024    24682962.020
   3487248.687 4   2717345.451 4  23824138.645    23824138.377
 98 11 14  0 19 30.0000000  0  8G 2G27G13G31G19G18G10G 3
  -3015495.229 5  -2349732.687 4  23024945.303    23024941.860
  -3093951.250 9  -2410870.177 7  21211780.242    21211778.916
  -1580294.372 9  -1231397.121 7  21262175.289    21262174.906
   1067212.347 8    831596.240 6  21207120.957    21207119.915
      2701.335 9      2106.213 8  20314341.979    20314340.605
   4096447.868 6   3192035.805 5  22162549.326    22162546.234
    208960.155 4    162825.611 4  24691065.414    24691062.856
   3575960.250 4   2786471.556 4  23841019.878    23841019.891
 98 11 14  0 20  0.0000000  0  8G 2G27G13G31G19G18G10G 3
  -3078456.055 5  -2398792.933 4  23012964.301    23012961.085
  -3158222.676 9  -2460951.743 7  21199549.756    21199548.350
  -1601496.682 9  -1247918.337 7  21258140.594    21258140.516
   1104970.804 8    861018.472 6  21214306.217    21214305.176
     11202.934 9      8730.879 8  20315959.592    20315958.705
   4195272.844 6   3269042.239 5  22181354.792    22181351.517
    251950.639 4    196324.692 4  24699245.545    24699243.028
   3664997.540 4   2855851.484 4  23857962.833    23857963.010
 98 11 14  0 20 30.0000000  0  7G 2G27G13G31G19G18G 3
  -3141230.193 5  -2447707.702 4  23001018.519    23001016.014
  -3222263.106 9  -2510853.319 7  21187363.337    21187361.550
  -1622133.341 9  -1263998.793 7  21254213.391    21254213.675
   1143338.102 8    890915.124 6  21221607.010    21221606.175
     20097.563 9     15661.794 8  20317652.281    20317650.861
   4294380.642 6   3346269.058 5  22200214.369    22200211.571
   3754357.096 4   2925482.516 4  23874966.975    23874967.129
 98 11 14  0 21  0.0000000  0  8G 2G27G13G31G19G18G10G 3
  -3203808.703 5  -2496470.029 4  22989109.795    22989106.810
  -3286082.984 9  -2560583.011 7  21175218.780    21175216.946
  -1642210.712 9  -1279643.445 7  21250392.733    21250392.471
   1182319.205 8    921290.065 6  21229024.843    21229024.380
     29364.930 9     22883.158 8  20319415.817    20319414.208
   4393756.758 6   3423704.961 5  22219125.234    22219122.509
         0.17914        -0.19514  24715846.164    24715842.747
   3844040.879 4   2995366.207 4  23892033.201    23892032.853
 98 11 14  0 21 30.0000000  0  8G 2G27G13G19G31G18G10G 3
  -3266188.892 5  -2545077.821 4  22977239.180    22977236.175
  -3349676.129 9  -2610136.044 7  21163117.254    21163115.709
  -1661706.279 8  -1294834.733 7  21246682.835    21246682.874
     39017.349 9     30404.568 8  20321252.410    20321251.101
   1221897.050 8    952129.985 6  21236556.560    21236555.247
   4493416.511 6   3501361.879 5  22238089.994    22238086.767
     44224.563 4     34460.320 4  24724261.042    24724258.615
   3934068.866 4   3065518.127 4  23909164.505    23909164.232
 98 11 14  0 22  0.0000000  0  9G 2G27G13G19G31G18G10G 3G15
  -3328380.911 5  -2593538.988 5  22965404.398    22965401.048
  -3413058.514 9  -2659524.841 7  21151055.808    21151054.511
  -1680640.424 9  -1309588.564 7  21243079.827    21243079.694
     49058.920 9     38229.212 8  20323163.179    20323161.840
   1262049.692 8    983417.790 6  21244197.317    21244195.878
   4593387.857 6   3579261.597 5  22257113.610    22257110.540
     88834.937 4     69221.583 4  24732750.335    24732745.610
   4024418.706 4   3135920.766 4  23926357.086    23926356.905
        -0.11714        -0.38014  25471251.417    25471249.106
 98 11 14  0 22 30.0000000  0  8G 2G27G13G19G31G18G10G 3
  -3390389.462 5  -2641857.197 4  22953604.228    22953601.121
  -3476248.879 9  -2708764.018 7  21139030.993    21139029.737
  -1699015.675 9  -1323906.893 7  21239583.039    21239582.839
     59468.595 9     46340.690 8  20325144.043    20325142.507
   1302767.169 8   1015145.714 6  21251945.644    21251944.372
   4693661.415 6   3657396.817 5  22276195.008    22276191.538
    133804.900 4    104263.059 4  24741307.370    24741302.008
   4115048.589 4   3206541.677 4  23943603.297    23943602.987
 98 11 14  0 23  0.0000000  0  7G 2G27G13G31G18G 3G19
  -3452202.540 5  -2690023.106 4  22941841.641    22941838.525
  -3539237.974 9  -2757846.369 7  21127044.482    21127042.906
  -1716790.452 9  -1337757.318 7  21236200.589    21236200.881
   1344041.537 8   1047307.577 6  21259799.767    21259798.428
   4794249.941 6   3735777.467 5  22295336.608    22295333.162
   4205961.063 4   3277382.820 4  23960902.997    23960903.147
     70253.126 9     54744.261 8  20327196.285    20327195.015
 98 11 14  0 23 30.0000000  0  7G 2G27G13G31G18G19G 3
  -3513824.113 6  -2738039.781 5  22930115.489    22930112.477
  -3602005.796 9  -2806756.290 7  21115100.231    21115098.440
  -1733952.195 9  -1351130.067 7  21232934.759    21232934.750
   1385884.383 8   1079912.415 6  21267762.198    21267761.135
   4895165.716 6   3814413.118 4  22314539.833    22314537.060
     81431.290 9     63454.553 8  20329323.396    20329322.131
   4297162.228 4   3348448.810 4  23978257.913    23978258.418
 98 11 14  0 24  0.0000000  0  8G 2G27G13G31G18G19G10G 3
  -3575286.791 6  -2785932.648 5  22918419.381    22918416.487
  -3664562.969 9  -2855502.059 7  21103195.825    21103194.157
  -1750523.977 9  -1364043.099 7  21229781.331    21229780.815
   1428304.823 8   1112967.319 6  21275834.331    21275833.607
   4996375.747 6   3893278.064 4  22333799.537    22333796.374
     92971.435 9     72446.904 8  20331519.455    20331518.000
        -0.05114        -0.42514  24767385.532    24767383.214
   4388621.296 4   3419715.722 4  23995662.231    23995662.229
 98 11 14  0 24 30.0000000  0  7G 2G27G13G31G18G19G 3
  -3636624.357 6  -2833728.020 5  22906747.139    22906744.169
  -3726928.375 9  -2904098.389 7  21091327.883    21091326.741
  -1766515.116 8  -1376503.674 7  21226738.184    21226738.214
   1471294.790 8   1146466.029 6  21284015.125    21284014.528
   5097835.331 6   3972337.473 4  22353106.746    22353103.545
    104848.851 9     81702.069 8  20333779.786    20333778.419
   4480322.965 4   3491171.665 4  24013112.020    24013112.403
 98 11 14  0 25  0.0000000  0  8G 2G27G13G31G19G18G10G 3
  -3697832.797 5  -2881422.781 5  22895099.326    22895096.802
  -3789062.320 9  -2952514.379 7  21079504.004    21079503.435
  -1781920.119 8  -1388507.526 7  21223806.556    21223806.759
   1514877.937 8   1180426.937 6  21292308.704    21292307.579
    117095.844 9     91245.208 8  20336110.264    20336108.683
   5199550.127 6   4051595.750 4  22372462.653    22372459.742
        -0.77614        -0.97014  24785114.516    24785108.665
   4572289.848 4   3562834.350 4  24030612.530    24030613.013
 98 11 14  0 25 30.0000000  0  8G 2G27G13G19G31G18G10G 3
  -3758906.613 6  -2929012.654 5  22883477.276    22883474.446
  -3850942.586 9  -3000732.686 7  21067728.651    21067727.443
  -1796754.496 9  -1400066.739 7  21220983.586    21220983.375
    129731.272 9    101091.019 8  20338514.642    20338512.833
   1559074.271 8   1214865.666 6  21300719.069    21300717.872
   5301507.060 6   4131042.700 4  22391864.681    22391861.235
     47165.270 4     36751.718 4  24794089.894    24794083.270
   4664532.569 4   3634711.916 4  24048165.769    24048166.076
 98 11 14  0 26  0.0000000  0  9G 2G27G13G19G31G18G10G 3G15
  -3819818.657 6  -2976476.471 5  22871885.983    22871883.149
  -3912563.021 9  -3048748.552 7  21056002.669    21056001.118
  -1811006.349 8  -1411172.039 7  21218271.519    21218271.734
    142761.545 9    111244.505 8  20340994.043    20340992.800
   1603877.811 8   1249777.538 5  21309244.815    21309244.246
   5403703.960 6   4210676.654 4  22411311.768    22411308.854
     94738.215 4     73821.450 4  24803140.748    24803136.172
   4757059.780 4   3706811.162 4  24065773.096    24065774.119
        -0.50414        -0.72914  25337526.616    25337523.731
 98 11 14  0 26 30.0000000  0  8G 2G27G13G19G31G18G10G 3
  -3880575.359 6  -3023819.252 5  22860324.176    22860321.532
  -3973963.055 9  -3096592.690 7  21044318.685    21044317.025
  -1824702.884 8  -1421844.627 7  21215665.149    21215665.280
    156167.720 9    121690.898 8  20343545.121    20343544.109
   1649223.630 8   1285111.973 5  21317873.635    21317873.073
   5506101.575 6   4290467.014 4  22430797.716    22430794.238
    142651.995 4    111156.825 4  24812256.777    24812255.460
   4849838.723 4   3779106.562 4  24083428.132    24083428.630
 98 11 14  0 27  0.0000000  0  8G 2G27G13G19G31G18G 3G15
  -3941099.850 6  -3070981.082 5  22848806.711    22848804.358
  -4035070.902 9  -3144209.126 7  21032690.267    21032688.939
  -1837765.458 9  -1432023.220 7  21213179.353    21213179.274
    170010.009 9    132477.119 8  20346179.118    20346177.765
   1695158.116 8   1320905.111 5  21326614.701    21326614.118
   5608775.574 6   4370472.744 4  22450335.885    22450332.548
   4942940.082 4   3851653.146 4  24101145.115    24101145.135
         0.16214         0.13114  25303959.237    25303957.399
 98 11 14  0 27 30.0000000  0  8G 2G27G13G19G31G18G10G 3
  -4001361.175 6  -3117937.854 5  22837339.227    22837337.121
  -4095886.823 9  -3191598.088 7  21021117.319    21021116.277
  -1850153.083 8  -1441675.878 7  21210821.900    21210822.339
    184290.782 9    143605.011 8  20348896.680    20348895.694
   1741686.483 8   1357161.016 5  21335468.614    21335468.272
   5711756.429 6   4450717.578 4  22469932.578    22469929.106
        -0.94014        -0.88714  24830719.985    24830717.683
   5036396.726 4   3924476.528 4  24118929.076    24118929.532
 98 11 14  0 28  0.0000000  0  8G 2G27G13G19G31G18G 3G15
  -4061405.353 6  -3164725.437 5  22825913.060    22825910.528
  -4156463.178 9  -3238800.375 7  21009589.988    21009588.912
  -1861901.940 9  -1450830.802 7  21208586.118    21208586.500
    198952.229 9    155029.525 8  20351686.564    20351685.616
   1788751.835 8   1393835.346 5  21344424.972    21344424.315
   5815014.946 6   4531178.776 4  22489581.786    22489578.799
   5130151.751 4   3997532.378 4  24136770.186    24136769.968
        -0.62114        -0.45714  25270378.947    25270376.010
 98 11 14  0 28 30.0000000  0  8G 2G27G13G19G31G18G10G 3
  -4121277.652 6  -3211379.082 5  22814519.587    22814516.639
  -4216815.299 9  -3285827.944 7  20998105.166    20998103.665
  -1873033.785 9  -1459504.932 7  21206467.923    21206467.995
    213968.979 9    166730.899 8  20354544.151    20354542.570
   1836341.843 8   1430918.503 5  21353481.022    21353480.154
   5918534.117 6   4611843.083 4  22509280.407    22509277.703
        -0.47014         0.25614  24849449.763    24849448.321
   5224167.556 4   4070791.471 4  24154660.768    24154660.576
 98 11 14  0 29  0.0000000  0  9G13G 2G31G27G19G18G10G 3G15
  -1883587.160 9  -1467728.302 7  21204459.824    21204460.054
  -4181019.827 6  -3257931.330 5  22803151.010    22803148.479
   1884462.658 8   1468415.268 6  21362638.086    21362637.503
  -4276953.011 9  -3332688.445 7  20986661.149    20986659.676
    229307.828 9    178683.263 8  20357463.351    20357461.908
   6022294.643 6   4692695.457 4  22529025.985    22529022.947
     49676.407 4     38709.406 4  24858904.173    24858901.189
   5318411.674 4   4144228.363 4  24172594.819    24172595.019
        -0.74014        -0.27014  25236747.813    25236744.542
 98 11 14  0 29 30.0000000  0  8G13G 2G31G18G27G19G10G 3
  -1893606.390 9  -1475535.456 7  21202553.172    21202553.643
  -4240645.241 6  -3304392.595 5  22791804.536    22791802.706
   1933112.493 8   1506324.262 6  21371895.906    21371895.296
   6126266.086 6   4773712.173 4  22548811.076    22548807.993
  -4336886.621 9  -3379389.899 7  20975256.082    20975254.813
    244963.102 9    190882.187 8  20360442.405    20360441.175
     99636.792 4     77639.502 4  24868411.700    24868406.745
   5412853.060 4   4217819.095 4  24190566.340    24190566.882
 98 11 14  0 30  0.0000000  0  9G13G 2G31G27G19G18G10G 3G15
  -1903068.654 9  -1482908.621 7  21200752.302    21200752.657
  -4300115.590 6  -3350733.044 5  22780487.506    22780485.178
   1982332.756 8   1544677.745 6  21381262.292    21381261.269
  -4396564.967 9  -3425892.453 7  20963899.638    20963898.670
    260983.528 9    203365.642 8  20363490.930    20363489.462
   6230475.622 6   4854914.420 4  22568641.328    22568638.387
    149923.484 4    116823.933 4  24877979.821    24877975.054
   5507503.494 4   4291572.659 4  24208577.780    24208578.470
        -0.25514        -0.18514  25203053.060    25203048.025
 98 11 14  0 30 30.0000000  0  8G13G 2G31G18G27G19G10G 3
  -1911964.959 9  -1489840.780 7  21199059.295    21199060.101
  -4359405.306 6  -3396932.744 5  22769205.013    22769202.330
   2032147.334 7   1583494.329 6  21390741.682    21390740.226
   6334920.625 6   4936300.144 4  22588516.689    22588513.566
  -4455971.515 9  -3472183.200 7  20952594.969    20952593.913
    277397.841 9    216156.027 8  20366614.432    20366613.292
    200547.153 4    156270.949 4  24887612.331    24887609.224
   5602386.159 4   4365507.263 4  24226633.567    24226634.569
 98 11 14  0 31  0.0000000  0  8G13G 2G31G18G27G19G 3G15
  -1920296.369 9  -1496332.762 7  21197474.099    21197474.362
  -4418482.839 6  -3442967.121 5  22757962.926    22757960.036
   2082553.925 7   1622772.220 6  21400333.743    21400332.796
   6439595.918 5   5017865.315 4  22608435.840    22608433.186
  -4515112.054 9  -3518266.694 7  20941340.882    20941339.431
    294215.168 9    229260.446 8  20369814.664    20369813.658
   5697521.564 4   4439638.761 4  24244737.148    24244738.050
         0.25814         0.32014  25169330.653    25169328.836
 98 11 14  0 31 30.0000000  0  8G13G 2G31G18G27G19G10G 3
  -1928057.362 9  -1502380.260 7  21195997.322    21195997.351
  -4477345.528 6  -3488834.088 5  22746761.587    22746758.872
   2133516.320 7   1662483.206 6  21410031.497    21410030.365
   6544483.522 6   5099595.912 4  22628395.112    22628392.279
  -4574005.078 9  -3564157.297 7  20930133.821    20930132.326
    311433.287 9    242677.170 8  20373091.091    20373089.725
        -0.77914        -0.28014  24907074.757    24907072.436
   5792897.387 4   4513957.605 4  24262886.221    24262887.192
 98 11 14  0 32  0.0000000  0  9G13G 2G31G18G27G19G10G 3G15
  -1935210.423 8  -1507954.046 7  21194636.267    21194636.470
  -4535993.425 6  -3534533.680 5  22735601.449    22735599.124
   2185040.357 7   1702631.835 6  21419836.109    21419834.556
   6649599.502 5   5181504.468 4  22648397.688    22648395.206
  -4632635.141 9  -3609843.004 7  20918976.863    20918975.398
    329068.349 9    256418.791 8  20376446.831    20376445.808
     51650.947 4     40247.770 4  24916903.157    24916900.615
   5888535.450 4   4588480.802 4  24281085.872    24281086.120
         0.15214        -0.19014  25135595.010    25135592.119
 98 11 14  0 32 30.0000000  0  8G13G 2G31G18G10G 3G27G19
  -1941737.713 8  -1513040.220 7  21193394.024    21193393.908
  -4594427.494 6  -3580066.652 5  22724481.683    22724480.043
   2237145.559 7   1743233.330 6  21429751.423    21429750.692
   6754954.380 5   5263599.178 4  22668446.073    22668443.376
    103669.976 4     80782.003 4  24926801.402    24926797.203
   5984460.435 4   4663227.517 4  24299339.446    24299339.693
  -4690985.430 9  -3655310.713 7  20907873.108    20907871.899
    347140.169 9    270500.740 8  20379885.833    20379884.846
 98 11 14  0 33  0.0000000  0  7G13G 2G31G18G 3G27G19
  -1947632.198 9  -1517633.303 7  21192272.056    21192272.334
  -4652682.999 6  -3625460.492 5  22713395.832    22713394.285
   2289812.092 7   1784272.221 6  21439773.497    21439772.474
   6860550.425 5   5345881.806 4  22688540.522    22688537.939
   6080654.381 4   4738183.797 4  24317644.458    24317644.414
  -4749059.529 9  -3700563.217 7  20896821.871    20896820.711
    365636.673 9    284913.608 8  20383405.784    20383404.187
 98 11 14  0 33 30.0000000  0  8G13G 2G31G18G27G19G 3G15
  -1952921.111 8  -1521754.515 7  21191265.418    21191266.283
  -4710823.668 6  -3670764.855 5  22702332.143    22702329.889
   2342998.671 7   1825716.354 6  21449894.368    21449893.392
   6966355.252 5   5428327.126 4  22708674.429    22708671.812
  -4806881.986 9  -3745619.622 7  20885818.585    20885817.445
    384527.330 9    299633.613 8  20387000.642    20386999.330
   6177078.188 4   4813319.188 4  24335993.081    24335993.469
         0.17814        -0.41614  25084980.585    25084977.324
 98 11 14  0 34  0.0000000  0  9G13G 2G31G18G27G19G10G 3G15
  -1957635.327 9  -1525427.912 7  21190368.346    21190368.264
  -4768882.267 6  -3716005.265 5  22691283.666    22691281.148
   2396694.384 7   1867557.229 5  21460112.223    21460111.293
   7072350.994 5   5510921.210 4  22728844.433    22728841.964
  -4864470.516 9  -3790493.774 7  20874859.799    20874858.690
    403792.218 9    314645.230 8  20390666.541    20390665.400
        -0.22514        -0.56014  24956886.630    24956884.022
   6273715.405 4   4888620.835 4  24354382.031    24354383.954
    -88745.365 4    -69152.650 4  25068092.126    25068088.396
 98 11 14  0 34 30.0000000  0  7G13G 2G31G18G27G19G 3
  -1961743.690 8  -1528629.204 7  21189586.479    21189586.555
  -4826797.987 6  -3761134.344 5  22680262.579    22680260.258
   2450938.225 7   1909825.223 5  21470434.620    21470434.016
   7178569.855 5   5593689.142 4  22749057.107    22749054.936
  -4921789.839 9  -3835158.168 7  20863952.360    20863951.414
    423457.061 9    329968.499 8  20394408.534    20394407.242
   6370586.558 4   4964104.917 4  24372816.953    24372817.916
 98 11 14  0 35  0.0000000  0  9G13G 2G31G18G27G19G15G 3G10
  -1965231.404 8  -1531346.881 7  21188922.804    21188923.342
  -4884530.371 6  -3806120.568 5  22669276.149    22669273.986
   2505741.614 7   1952529.215 5  21480863.168    21480862.446
   7285032.066 5   5676646.706 4  22769316.602    22769313.721
  -4978817.418 9  -3879595.215 8  20853100.296    20853099.673
    443532.269 9    345611.534 8  20398228.662    20398227.712
        -0.48814        -0.44314  25034316.076    25034312.801
   6467705.796 4   5039782.196 4  24391298.569    24391299.030
        -0.46014        -0.27414  24977254.449    24977251.747
 98 11 14  0 35 30.0000000  0  7G13G 2G31G18G 3G27G19
  -1968144.631 8  -1533616.904 7  21188368.456    21188368.628
  -4942082.127 6  -3850966.046 5  22658324.141    22658322.278
   2561087.358 7   1995655.812 5  21491395.229    21491393.967
   7391692.400 5   5759758.638 4  22789613.331    22789610.144
   6565038.504 4   5115625.831 4  24409821.160    24409820.877
  -5035573.559 9  -3923820.748 7  20842299.908    20842299.089
    463984.864 9    361548.635 8  20402120.688    20402119.418
 98 11 14  0 36  0.0000000  0  7G13G 2G31G18G27G19G15
  -1970459.943 8  -1535421.015 7  21187927.716    21187928.174
  -4999397.404 6  -3895627.250 5  22647417.588    22647415.511
   2617015.981 7   2039236.607 5  21502038.020    21502036.955
   7498574.387 5   5843043.295 4  22809952.301    22809949.434
  -5092017.285 9  -3967802.838 7  20831558.986    20831558.110
    484844.748 9    377803.106 8  20406090.110    20406088.868
        -0.45514        -0.06514  25000543.104    25000539.379
 98 11 14  0 36 30.0000000  0  7G13G 2G31G18G10G27G19
  -1972142.282 8  -1536731.904 7  21187607.559    21187608.384
  -5056443.811 6  -3940078.936 5  22636562.009    22636560.334
   2673545.321 7   2083285.482 5  21512795.111    21512794.619
   7605706.124 5   5926522.553 4  22830338.439    22830335.796
        -0.22414        -0.03414  25008296.362    25008294.121
  -5148112.669 9  -4011513.491 7  20820884.306    20820883.547
    506139.302 9    394396.280 8  20410142.335    20410141.343
 98 11 14  0 37  0.0000000  0  8G13G 2G31G18G27G19G15G10
  -1973197.918 9  -1537554.450 7  21187406.761    21187407.157
  -5113247.696 6  -3984341.647 5  22625752.755    22625750.838
   2730655.928 7   2127787.309 5  21523662.360    21523661.786
   7713080.329 5   6010190.746 4  22850771.300    22850768.399
  -5203866.169 9  -4054957.745 8  20810274.811    20810274.075
    527881.034 9    411337.904 8  20414279.745    20414278.411
         0.41114        -0.19514  24966798.213    24966794.260
     55084.493 4     42923.036 4  25018778.829    25018776.170
 98 11 14  0 37 30.0000000  0  9G13G 2G31G18G27G19G15G 3G10
  -1973747.271 9  -1537982.488 7  21187302.247    21187302.939
  -5169936.797 6  -4028514.912 5  22614965.351    22614963.543
   2788229.810 7   2172650.114 5  21534618.468    21534617.664
   7820565.361 5   6093945.312 4  22871225.419    22871221.907
  -5259405.137 9  -4098234.833 8  20799706.044    20799705.240
    549962.487 9    428544.247 8  20418481.823    20418480.426
    -88731.482 4    -69141.869 4  24949913.298    24949908.397
        -0.03414        -0.29214  24484365.641    24484365.378
    110392.221 4     86019.889 4  25029304.110    25029300.659
 98 11 14  0 38  0.0000000  0  7G13G 2G31G18G27G19G10
  -1973788.413 9  -1538014.517 7  21187294.344    21187295.101
  -5226515.191 6  -4072601.916 5  22604198.807    22604196.787
   2846254.272 7   2217864.028 5  21545660.257    21545660.000
   7928173.017 5   6177795.407 4  22891702.639    22891698.566
  -5314740.753 9  -4141353.469 8  20789176.072    20789175.114
    572391.662 9    446021.546 8  20422749.885    20422748.782
    165923.768 4    129291.146 4  25039871.380    25039866.669
 98 11 14  0 38 30.0000000  0  9G13G 2G31G18G27G19G15G 3G10
  -1973245.405 9  -1537591.367 7  21187397.774    21187398.164
  -5282926.647 6  -4116558.847 5  22593463.686    22593461.775
   2904782.802 7   2263470.729 5  21556797.684    21556796.980
   8035981.880 5   6261802.289 4  22912217.616    22912214.113
  -5369816.223 9  -4184269.410 8  20778695.620    20778694.313
    595225.563 9    463814.212 8  20427094.845    20427093.660
        -0.03914        -0.54414  24916116.448    24916113.310
        -0.62014        -0.92514  24521845.875    24521846.798
    221743.975 4    172787.352 4  25050491.600    25050488.827
 98 11 14  0 39  0.0000000  0  7G13G 2G31G18G27G19G 3
  -1972089.124 9  -1536690.338 7  21187617.999    21187618.319
  -5339133.701 6  -4160356.504 5  22582767.813    22582765.668
   2963851.540 7   2309498.351 5  21568038.171    21568037.272
   8144006.404 5   6345977.241 4  22932773.722    22932770.972
  -5424609.805 9  -4226965.683 8  20768268.713    20768267.420
    618480.140 9    481934.676 8  20431520.136    20431519.005
     98817.485 4     77000.158 4  24540650.491    24540651.186
 98 11 14  0 39 30.0000000  0  9G 2G13G31G18G27G19G15G 3G10
  -5395131.561 6  -4203991.146 5  22572111.614    22572109.865
  -1970320.590 9  -1535312.232 7  21187954.546    21187955.036
   3023459.710 7   2355946.311 5  21579381.255    21579380.293
   8252243.155 5   6430317.547 4  22953371.024    22953367.812
  -5479117.036 9  -4269438.816 8  20757896.232    20757895.363
    642128.519 9    500362.000 8  20436020.203    20436019.266
         0.10214        -0.25514  24882347.344    24882345.072
    197866.641 4    154181.281 4  24559499.261    24559499.333
        -0.78014        -0.64514  25071922.661    25071919.490
 98 11 14  0 40  0.0000000  0  7G 2G13G31G18G 3G27G19
  -5450932.687 6  -4247472.488 5  22561492.965    22561491.418
  -1967931.842 9  -1533450.847 7  21188408.800    21188409.360
   3083584.494 7   2402796.837 5  21590822.712    21590821.786
   8360697.909 5   6514827.723 4  22974009.487    22974006.230
    297150.931 4    231545.637 4  24578392.453    24578392.239
  -5533334.707 9  -4311686.324 8  20747578.847    20747578.027
    666149.518 9    519079.677 8  20440591.325    20440590.132
 98 11 14  0 40 30.0000000  0  8G 2G13G31G18G27G19G15G 3
  -5506557.733 6  -4290816.621 5  22550907.724    22550906.412
  -1964917.518 9  -1531102.002 7  21188982.252    21188983.087
   3144219.000 7   2450044.544 5  21602360.858    21602360.027
   8469349.082 5   6599490.957 4  22994685.044    22994681.849
  -5587255.186 9  -4353702.254 8  20737318.168    20737316.956
    690538.032 9    538083.729 8  20445232.137    20445230.875
        -0.05814        -0.50914  24848612.884    24848609.243
    396666.967 4    309090.600 4  24597329.912    24597329.622
 98 11 14  0 41  0.0000000  0 10G 2G13G31G18G27G19G15G 3G10G 7
  -5562016.465 6  -4334031.166 5  22540354.475    22540352.246
  -1961291.831 9  -1528276.774 7  21189672.160    21189672.670
   3205365.364 7   2497691.097 5  21613996.602    21613995.852
   8578172.725 5   6684288.592 4  23015393.501    23015389.702
  -5640875.654 9  -4395484.371 8  20727114.450    20727113.323
    715314.834 9    557390.343 8  20449946.994    20449946.056
    -88594.549 4    -69035.110 4  24831754.460    24831748.929
    496397.046 4    386802.338 4  24616307.965    24616308.329
         0.36714        -0.12214  25104494.989    25104492.875
        -0.83214        -0.44614  24980884.647    24980878.143
 98 11 14  0 41 30.0000000  0  8G 2G13G31G18G27G19G 3G 7
  -5617384.553 6  -4377175.079 5  22529818.307    22529815.648
  -1957127.912 9  -1525032.138 7  21190464.402    21190464.841
   3266956.680 7   2545684.373 5  21625716.802    21625716.128
   8687119.620 5   6769182.260 4  23036125.943    23036122.433
  -5694253.459 9  -4437077.428 8  20716956.913    20716956.183
    740435.375 9    576964.806 8  20454727.291    20454725.953
    596263.795 4    464620.521 4  24635311.762    24635311.752
   -108225.570 4    -84331.094 4  24960289.487    24960283.172
 98 11 14  0 42  0.0000000  0  8G 2G13G31G18G27G19G 3G10
  -5672587.403 6  -4420190.242 5  22519313.565    22519310.854
  -1952350.242 9  -1521309.261 7  21191373.584    21191374.686
   3329073.475 7   2594087.101 5  21637537.076    21637537.064
   8796277.143 5   6854240.061 4  23056897.662    23056894.682
  -5747309.796 9  -4478419.996 8  20706860.624    20706860.070
    766002.080 9    596886.928 7  20459592.292    20459590.944
    696331.494 4    542595.273 4  24654354.108    24654354.475
        -0.47214        -0.49114  25126439.495    25126436.878
 98 11 14  0 42 30.0000000  0  9G 2G13G31G18G27G19G15G 3G 7
  -5727619.318 6  -4463072.214 5  22508841.214    22508838.893
  -1946954.052 9  -1517104.420 7  21192400.732    21192401.178
   3391730.389 7   2642910.707 5  21649460.365    21649459.826
   8905644.836 5   6939461.623 4  23077709.257    23077705.941
  -5800041.704 9  -4519509.761 8  20696826.143    20696825.169
    792032.195 9    617170.152 7  20464545.600    20464544.933
        -0.67814        -0.65814  24781182.538    24781180.166
    796597.890 4    620724.955 4  24673433.576    24673434.722
        -0.22914        -0.76914  24919120.099    24919115.598
 98 11 14  0 43  0.0000000  0  9G 2G13G31G18G27G19G15G 3G10
  -5782526.979 6  -4505857.370 5  22498392.770    22498390.490
  -1940996.350 9  -1512462.038 7  21193534.502    21193534.633
   3454871.563 6   2692111.668 5  21661475.845    21661474.853
   9015172.790 5   7024808.077 4  23098551.913    23098549.828
  -5852518.392 9  -4560400.661 8  20686840.200    20686839.136
    818456.777 9    637760.744 7  20469574.085    20469573.001
    -88524.622 4    -68980.317 4  24764337.034    24764334.007
    897000.292 4    698960.512 4  24692540.444    24692539.538
        -0.12114        -0.05714  25148605.327    25148601.382
 98 11 14  0 43 30.0000000  0 10G 2G13G31G18G27G19G15G 3G10G 7
  -5837303.097 6  -4548540.020 5  22487969.316    22487967.174
  -1934475.827 9  -1507381.094 7  21194775.201    21194776.142
   3518488.413 6   2741683.276 5  21673581.546    21673580.584
   9124854.100 5   7110274.015 4  23119424.051    23119420.677
  -5904748.654 9  -4601099.534 8  20676900.996    20676900.186
    845255.871 9    658643.167 7  20474673.900    20474672.593
   -177045.168 4   -137957.349 4  24747492.224    24747488.886
    997549.241 4    777310.310 4  24711673.847    24711673.754
     58628.871 4     45684.783 4  25159762.376    25159758.542
        -0.23514        -0.80214  24877956.128    24877950.381
 98 11 14  0 44  0.0000000  0  9G 2G13G31G18G27G19G15G 3G10
  -5891900.640 7  -4591083.529 5  22477579.766    22477577.433
  -1927333.739 9  -1501815.821 7  21196134.213    21196134.908
   3582618.178 6   2791654.555 5  21685784.963    21685784.588
   9234704.797 5   7195871.935 4  23140327.297    23140324.015
  -5956685.240 9  -4641569.568 8  20667017.604    20667017.129
    872463.044 9    679843.577 7  20479851.269    20479850.250
   -265516.148 4   -206895.760 4  24730655.716    24730653.299
   1098295.892 4    855814.104 4  24730845.541    24730844.972
    117549.338 4     91596.742 4  25170973.620    25170969.619
 98 11 14  0 44 30.0000000  0  8G 2G13G31G18G27G19G 3G 7
  -5946301.623 7  -4633473.872 5  22467227.547    22467225.176
  -1919552.586 9  -1495752.572 7  21197614.965    21197615.267
   3647271.471 6   2842033.781 5  21698087.986    21698087.761
   9344711.615 5   7281591.538 4  23161260.875    23161258.315
  -6008313.752 9  -4681799.544 8  20657193.025    20657192.185
    900071.879 9    701356.969 7  20485104.965    20485103.700
   1199255.618 4    934484.057 4  24750057.658    24750057.282
        -0.74114        -0.95714  24836803.317    24836797.509
 98 11 14  0 45  0.0000000  0  9G 2G13G31G18G27G19G 3G10G 7
  -6000483.026 7  -4675693.121 5  22456916.766    22456914.816
  -1911136.300 9  -1489194.414 7  21199216.611    21199217.278
   3712456.721 6   2892827.499 5  21710492.369    21710491.445
   9454866.821 5   7367426.756 4  23182222.812    23182220.010
  -6059614.367 9  -4721774.011 8  20647430.941    20647429.856
    928082.632 9    723183.543 7  20490435.181    20490434.095
   1300431.161 4   1013322.070 4  24769310.859    24769310.255
         0.10814         0.21414  25193552.433    25193550.439
   -108067.596 4    -84208.804 4  24816238.477    24816233.040
 98 11 14  0 45 30.0000000  0  8G 2G13G31G18G27G19G15G 3
  -6054444.543 7  -4717741.029 5  22446648.248    22446646.483
  -1902087.467 9  -1482143.367 7  21200938.670    21200938.967
   3778167.027 6   2944030.375 5  21722996.482    21722995.693
   9565171.148 5   7453378.164 4  23203212.785    23203210.455
  -6110561.061 9  -4761472.680 8  20637736.058    20637735.207
    956513.548 9    745337.515 7  20495845.327    20495844.397
        -0.99514        -0.80114  24680230.584    24680226.811
   1401827.064 4   1092332.030 4  24788605.734    24788605.325
 98 11 14  0 46  0.0000000  0 10G 2G13G31G18G27G19G15G 3G 7G10
  -6108236.736 7  -4759656.996 5  22436411.907    22436410.356
  -1892437.216 9  -1474623.682 7  21202775.078    21202775.350
   3844347.484 6   2995599.597 5  21735589.897    21735589.670
   9675600.336 5   7539426.863 4  23224226.960    23224224.827
  -6161179.923 9  -4800915.898 8  20628103.523    20628102.924
    985332.046 9    767793.495 7  20501329.397    20501328.142
    -88191.128 4    -68720.297 4  24663448.658    24663445.146
   1503391.343 4   1171473.033 4  24807932.678    24807932.338
        -0.33614        -0.41214  24775146.882    24775140.251
        -0.34114        -0.53014  25216319.865    25216317.305
 98 11 14  0 46 30.0000000  0  8G 2G13G31G18G27G19G15G 3
  -6161874.273 7  -4801452.456 5  22426205.263    22426203.518
  -1882218.242 8  -1466660.837 7  21204719.652    21204720.223
   3910980.321 6   3047521.312 5  21748269.838    21748269.486
   9786164.639 5   7625580.857 4  23245266.369    23245264.059
  -6211487.787 9  -4840116.810 8  20618530.267    20618529.407
   1014537.732 9    790551.183 7  20506887.198    20506886.089
   -176327.212 4   -137397.650 4  24646675.301    24646672.801
   1605104.611 4   1250730.119 4  24827287.901    24827287.942
 98 11 14  0 47  0.0000000  0  9G 2G13G31G18G27G19G15G 3G 7
  -6215348.330 7  -4843120.532 5  22416029.535    22416027.742
  -1871435.802 9  -1458258.929 7  21206771.313    21206771.615
   3978070.272 6   3099799.222 5  21761036.889    21761035.874
   9896881.032 5   7711853.345 4  23266335.453    23266332.560
  -6261479.728 9  -4879071.539 8  20609017.186    20609016.167
   1044157.361 9    813631.424 7  20512523.474    20512522.544
   -264399.534 4   -206025.346 4  24629915.021    24629913.085
   1706975.657 4   1330110.146 4  24846673.226    24846673.169
        -0.45614        -0.78614  24734100.503    24734095.840
 98 11 14  0 47 30.0000000  0  8G 2G13G31G18G27G19G 3G10
  -6268653.558 7  -4884657.054 5  22405885.820    22405884.086
  -1860074.035 9  -1449405.595 7  21208933.239    21208933.752
   4045625.254 6   3152439.493 5  21773892.256    21773891.613
  10007771.367 5   7798261.401 4  23287437.275    23287434.903
  -6311153.307 9  -4917778.206 8  20599564.616    20599563.753
   1074214.639 9    837052.691 7  20518243.171    20518242.222
   1809016.139 4   1409622.111 4  24866091.400    24866091.049
        -0.00814        -0.58614  25250812.629    25250810.253
 98 11 14  0 48  0.0000000  0  9G 2G13G31G18G27G19G 7G 3G15
  -6321767.314 7  -4926044.376 5  22395778.556    22395777.137
  -1848119.548 9  -1440090.399 7  21211208.083    21211209.021
   4113674.474 6   3205464.885 5  21786841.532    21786841.633
  10118836.355 5   7884805.531 4  23308572.030    23308569.625
  -6360504.225 9  -4956233.414 8  20590173.311    20590172.721
   1104711.067 9    860816.152 8  20524046.489    20524045.527
        -0.30714        -0.67514  24693094.762    24693090.850
   1911238.247 4   1489275.603 4  24885544.039    24885543.431
         0.01014         0.25814  24596442.109    24596439.511
 98 11 14  0 48 30.0000000  0  7G 2G13G31G18G27G19G10
  -6374700.786 7  -4967291.216 5  22385705.630    22385704.136
  -1835590.281 9  -1430327.324 7  21213592.493    21213592.905
   4182221.883 7   3258878.492 5  21799885.400    21799885.475
  10230034.552 5   7971453.447 4  23329732.439    23329730.229
  -6409549.002 9  -4994450.096 8  20580840.354    20580839.543
   1135622.387 9    884902.905 8  20529928.781    20529927.743
        -0.37214        -0.37514  25274061.470    25274059.458
 98 11 14  0 49  0.0000000  0  8G 2G13G31G18G27G19G 7G15
  -6427453.976 7  -5008397.571 5  22375666.881    22375665.661
  -1822470.413 9  -1420104.041 7  21216089.080    21216090.080
   4251261.776 7   3312675.863 5  21813023.465    21813023.212
  10341345.134 5   8058188.952 4  23350914.543    23350912.210
  -6458276.868 9  -5032419.833 8  20571567.673    20571566.740
   1166930.076 9    909298.515 8  20535886.341    20535885.359
        -0.23014         0.25414  24652101.703    24652098.255
         0.43214         0.29914  24563021.467    24563019.084
 98 11 14  0 49 30.0000000  0  8G 2G13G31G18G27G19G15G 3
  -6480019.636 7  -5049357.798 5  22365664.033    22365662.285
  -1808724.223 9  -1409392.723 7  21218704.647    21218705.903
   4320809.938 7   3366869.287 5  21826257.928    21826257.497
  10452783.451 5   8145023.980 4  23372120.274    23372118.431
  -6506657.222 9  -5070118.772 8  20562361.315    20562360.425
   1198643.078 9    934009.955 8  20541921.149    20541920.451
    -87692.494 4    -68331.722 4  24546334.965    24546331.167
        -0.95814        -0.90914  24944099.081    24944098.428
 98 11 14  0 50  0.0000000  0  8G 2G13G31G18G27G19G15G10
  -6532419.197 7  -5090188.595 5  22355692.525    22355690.385
  -1794361.575 9  -1398201.044 7  21221437.719    21221438.566
   4390838.803 6   3421437.284 5  21839583.831    21839584.113
  10564328.458 4   8231942.163 4  23393346.310    23393343.620
  -6554701.660 9  -5107555.963 8  20553218.758    20553217.836
   1230733.653 9    959015.606 8  20548027.752    20548027.004
   -175308.733 4   -136604.011 4  24529662.271    24529658.675
        -0.70614        -0.30614  25309288.446    25309287.076
 98 11 14  0 50 30.0000000  0  8G 2G13G31G18G27G19G 7G15
  -6584644.746 7  -5130883.801 5  22345754.373    22345752.149
  -1779379.591 9  -1386526.757 7  21224288.654    21224289.860
   4461336.789 6   3476370.816 5  21852999.097    21852999.227
  10676000.616 5   8318959.415 4  23414597.731    23414594.552
  -6602398.146 9  -5144722.030 8  20544142.379    20544141.162
   1263221.102 9    984330.507 8  20554209.917    20554208.704
         0.18014         0.38814  24590666.706    24590663.506
   -262830.743 4   -204802.889 4  24513006.337    24513004.519
 98 11 14  0 51  0.0000000  0  7G 2G13G31G18G 3G27G19
  -6636715.708 7  -5171458.559 5  22335845.641    22335843.471
  -1763820.414 9  -1374402.717 7  21227249.555    21227250.769
   4532260.179 6   3531635.817 5  21866495.474    21866494.784
  10787786.447 4   8406065.206 4  23435869.359    23435866.449
        -0.24114        -0.12214  25002925.348    25002924.366
  -6649777.752 9  -5181641.174 8  20535126.061    20535125.038
   1296076.095 9   1009931.804 8  20560462.174    20560460.979
 98 11 14  0 51 30.0000000  0  8G 2G13G31G27G19G18G 7G15
  -6688624.064 7  -5211906.601 5  22325967.861    22325965.950
  -1747691.103 9  -1361834.415 7  21230318.812    21230319.694
   4603613.413 6   3587235.745 5  21880073.523    21880072.863
  -6696844.562 9  -5218316.579 8  20526169.398    20526168.609
   1329307.935 9   1035826.746 8  20566785.964    20566784.789
  10899683.407 4   8493257.636 4  23457162.656    23457159.101
        -0.08414        -0.00914  24549753.432    24549748.167
        -0.57014        -0.79814  24479739.725    24479736.809
 98 11 14  0 52  0.0000000  0 10G 2G13G31G18G27G19G 7G15G 3G26
  -6740330.552 7  -5252197.345 5  22316128.343    22316126.722
  -1730973.727 9  -1348807.883 7  21233499.912    21233501.233
   4675418.793 6   3643188.046 5  21893737.626    21893737.029
  11011717.601 5   8580557.000 4  23478481.910    23478479.601
  -6743574.595 9  -5254729.561 8  20517276.870    20517276.379
   1362943.482 9   1062036.263 7  20573186.342    20573185.103
   -107425.204 4    -83707.392 4  24529310.877    24529306.557
    -87263.987 4    -67998.136 4  24463134.663    24463131.367
        -0.03914        -0.50414  25042263.600    25042264.015
        -0.24314         0.25614  25213852.162    25213852.018
 98 11 14  0 52 30.0000000  0  8G 2G13G31G18G27G19G 7G15
  -6791858.090 7  -5292348.651 5  22306322.815    22306321.143
  -1713681.927 9  -1335333.747 7  21236790.406    21236791.235
   4747667.628 6   3699485.911 5  21907485.949    21907486.175
  11123870.912 4   8667949.171 4  23499824.245    23499821.007
  -6789978.069 9  -5290888.089 8  20508446.674    20508445.991
   1396972.519 9   1088552.399 7  20579661.776    20579661.160
   -214802.013 4   -167377.235 4  24508876.004    24508872.673
   -174431.152 4   -135920.491 4  24446547.029    24446542.902
 98 11 14  0 53  0.0000000  0  9G 2G13G31G18G27G19G15G26G 3
  -6843218.067 7  -5332369.395 5  22296549.332    22296547.394
  -1695806.022 9  -1321404.462 7  21240192.188    21240192.768
   4820363.447 6   3756132.062 5  21921319.208    21921319.286
  11236127.216 4   8755421.579 4  23521185.949    23521182.522
  -6836045.323 9  -5326784.637 8  20499680.453    20499679.719
   1431391.955 9   1115372.740 7  20586211.760    20586210.816
   -261501.487 4   -203767.406 4  24429977.996    24429974.473
        -0.29814        -0.97414  25178873.356    25178872.414
         0.02214         0.34914  25081712.010    25081711.795
 98 11 14  0 53 30.0000000  0  8G 2G13G31G18G27G19G 7G15
  -6894423.451 7  -5372269.669 5  22286805.466    22286803.445
  -1677335.378 9  -1307011.747 7  21243707.117    21243708.081
   4893511.867 6   3813130.880 5  21935238.904    21935238.364
  11348481.356 4   8842970.248 4  23542565.337    23542562.876
  -6881769.782 9  -5362414.080 8  20490979.338    20490978.928
   1466216.802 9   1142508.985 7  20592838.786    20592837.622
         0.24614        -0.43814  24468051.143    24468046.878
   -348470.740 4   -271535.578 4  24413428.125    24413425.630
 98 11 14  0 54  0.0000000  0  9G 2G13G31G18G27G19G 7G15G26
  -6945488.296 7  -5412060.442 5  22277088.043    22277086.163
  -1658274.472 9  -1292159.084 7  21247334.270    21247335.083
   4967106.341 6   3870477.284 5  21949243.437    21949242.897
  11460939.547 4   8930599.987 4  23563965.247    23563962.248
  -6927148.778 9  -5397774.335 9  20482344.061    20482343.546
   1501446.685 9   1169960.845 7  20599542.797    20599541.909
   -107138.341 4    -83484.639 4  24447661.862    24447658.462
   -435339.868 4   -339225.708 4  24396897.547    24396895.270
        -0.78914        -0.44114  25144060.597    25144059.752
 98 11 14  0 54 30.0000000  0  9G13G 2G31G27G19G18G 7G15G 3
  -1638619.438 9  -1276843.468 7  21251074.530    21251074.985
  -6996389.888 7  -5451724.019 6  22267401.919    22267400.129
   5041162.872 6   3928183.738 5  21963335.858    21963335.954
  -6972162.656 9  -5432850.079 9  20473778.309    20473777.529
   1537104.107 9   1197745.843 7  20606328.099    20606327.054
  11573507.788 4   9018315.462 4  23585387.552    23585383.657
   -214166.500 4   -166882.856 4  24427293.928    24427291.118
   -522087.307 4   -406821.010 4  24380390.254    24380387.140
        -0.71014        -0.80314  25141067.839    25141068.605
 98 11 14  0 55  0.0000000  0  8G13G 2G31G27G19G18G15G26
  -1618399.774 9  -1261087.879 7  21254922.224    21254923.259
  -7047120.290 7  -5491254.182 6  22257748.213    22257746.446
   5115657.912 6   3986231.893 5  21977511.753    21977512.003
  -7016829.554 9  -5467655.446 9  20465278.532    20465277.723
   1573176.488 9   1225854.188 7  20613192.490    20613191.473
  11686162.430 4   9106098.255 4  23606824.644    23606821.147
   -608732.666 4   -474336.778 4  24363901.297    24363898.910
        -0.01414        -0.67814  25109425.837    25109424.807
 98 11 14  0 55 30.0000000  0  8G13G 2G31G27G19G18G15G 3
  -1597628.516 9  -1244902.474 7  21258874.948    21258875.468
  -7097673.893 7  -5530646.581 6  22248128.160    22248126.893
   5190581.192 6   4044613.752 5  21991769.148    21991768.905
  -7061169.851 9  -5502206.317 9  20456840.850    20456840.246
   1609652.523 9   1254277.068 7  20620133.628    20620132.886
  11798902.108 4   9193947.337 4  23628277.632    23628274.504
   -695278.384 4   -541774.922 4  24347432.367    24347430.058
        -0.92914        -0.01814  25180745.618    25180745.429
 98 11 14  0 56  0.0000000  0  9G13G 2G31G27G19G18G 7G15G26
  -1576293.814 9  -1228278.019 7  21262934.821    21262935.111
  -7148029.845 7  -5569884.967 6  22238545.697    22238543.998
   5265938.413 6   4103333.732 5  22006109.195    22006109.085
  -7105173.333 9  -5536494.738 9  20448467.156    20448466.288
   1646530.372 9   1283013.050 7  20627151.140    20627150.013
  11911726.503 4   9281862.417 4  23649747.739    23649745.275
        -0.05914        -0.85314  24366290.458    24366287.993
   -781706.839 4   -609121.688 4  24330985.066    24330983.739
        -0.14514         0.32714  25074964.400    25074963.679
 98 11 14  0 56 30.0000000  0  8G13G 2G31G27G19G18G15G 3
  -1554380.276 9  -1211202.527 7  21267104.909    21267105.586
  -7198171.570 8  -5608956.423 6  22229003.968    22229001.908
   5341743.993 6   4162403.064 5  22020534.496    22020534.138
  -7148828.390 9  -5570511.656 9  20440159.915    20440158.859
   1683822.601 9   1312071.929 7  20634247.697    20634246.437
  12024633.607 4   9369841.961 4  23671233.833    23671230.745
   -867997.539 4   -676361.098 4  24314564.110    24314561.971
        -0.61514        -0.13614  25220506.475    25220506.756
 98 11 14  0 57  0.0000000  0  9G13G 2G31G27G19G18G 7G15G26
  -1531866.765 9  -1193659.528 7  21271389.052    21271389.246
  -7248127.259 7  -5647882.914 6  22219497.746    22219495.562
   5417992.953 6   4221817.907 5  22035044.280    22035044.611
  -7192135.002 9  -5604257.068 9  20431918.913    20431918.201
   1721521.798 9   1341447.927 7  20641421.509    20641420.939
  12137624.496 4   9457886.767 4  23692735.089    23692730.735
        -0.47214         0.39014  24325703.374    24325699.299
   -954146.687 4   -743490.228 4  24298170.056    24298168.005
        -0.13514         0.24414  25040700.296    25040699.321
 98 11 14  0 57 30.0000000  0 10G13G 2G31G27G19G18G 7G15G26G 3
  -1508752.495 8  -1175648.407 7  21275787.689    21275787.668
  -7297931.742 8  -5686691.575 5  22210020.026    22210018.207
   5494680.024 6   4281574.166 5  22049637.269    22049637.350
  -7235100.952 9  -5637737.026 9  20423742.804    20423742.128
   1759620.392 9   1371135.142 7  20648671.490    20648670.371
  12250689.899 4   9545989.631 4  23714249.634    23714247.795
   -106522.285 4    -83003.379 4  24305431.968    24305428.891
  -1040158.580 4   -810512.427 4  24281803.621    24281800.493
    -89638.483 4    -69847.937 4  25023641.992    25023640.850
        -0.02714        -0.91814  25260372.655    25260372.481
 98 11 14  0 58  0.0000000  0  9G13G 2G31G27G19G18G 7G15G26
  -1485012.231 8  -1157149.494 7  21280305.292    21280305.780
  -7347574.746 8  -5725374.404 6  22200573.215    22200571.807
   5571823.509 6   4341686.057 5  22064316.833    22064316.780
  -7277685.702 9  -5670919.936 9  20415639.196    20415638.301
   1798155.507 9   1401162.505 7  20656004.391    20656003.278
  12363856.691 4   9634171.571 4  23735784.959    23735782.497
   -212950.675 4   -165934.354 4  24285180.010    24285175.699
  -1126005.823 4   -877406.293 4  24265467.557    24265465.069
   -178979.459 4   -139464.240 4  25006640.769    25006639.892
 98 11 14  0 58 30.0000000  0 10G13G 2G31G27G19G18G 7G15G26G 3
  -1460671.525 8  -1138182.708 7  21284937.085    21284937.206
  -7397086.242 8  -5763954.764 6  22191151.425    22191150.101
   5649390.709 6   4402128.120 4  22079077.063    22079077.251
  -7319905.664 9  -5703818.598 9  20407604.895    20407604.263
   1837122.083 9   1431526.070 7  20663419.509    20663418.869
  12477117.657 4   9722426.823 4  23757339.206    23757334.349
   -319296.548 4   -248800.998 4  24264942.427    24264938.372
  -1211707.835 4   -944187.000 4  24249158.847    24249155.933
   -268045.214 4   -208866.057 4  24989691.893    24989691.257
         0.07514        -0.18414  25300344.547    25300343.931
 98 11 14  0 59  0.0000000  0  9G13G 2G31G27G19G18G 7G15G26
  -1435733.959 8  -1118750.833 7  21289682.435    21289682.747
  -7446475.821 8  -5802440.112 6  22181753.002    22181751.424
   5727370.195 6   4462891.448 4  22093916.185    22093916.188
  -7361760.526 9  -5736432.765 9  20399640.180    20399639.754
   1876511.821 9   1462219.369 7  20670915.118    20670914.221
  12590477.505 4   9810759.117 4  23778910.347    23778906.350
   -425569.104 4   -331610.568 4  24244719.668    24244715.585
  -1297270.090 4  -1010858.806 4  24232877.162    24232875.000
   -356850.142 4   -278064.994 4  24972793.590    24972792.225
 98 11 14  0 59 30.0000000  0 10G13G 2G31G27G19G18G 7G15G26G 3
  -1410221.291 9  -1098870.830 7  21294537.311    21294538.323
  -7495721.970 8  -5840813.702 6  22172381.718    22172379.804
   5805747.719 6   4523964.930 4  22108830.732    22108831.100
  -7403254.255 9  -5768765.531 9  20391744.267    20391743.352
   1916322.729 9   1493240.854 7  20678490.908    20678489.887
  12703929.212 4   9899163.044 4  23800498.649    23800495.940
   -531784.275 4   -414375.434 4  24224506.962    24224503.224
  -1382691.813 4  -1077421.147 4  24216621.462    24216618.529
   -445386.763 4   -347055.322 4  24955946.800    24955944.263
        -0.16314        -0.15714  25340398.061    25340398.068
 98 11 14  1  0  0.0000000  0  9G13G 2G31G27G19G18G 7G15G26
  -1384140.600 9  -1078548.216 6  21299500.252    21299500.744
  -7544804.182 8  -5879059.556 6  22163041.659    22163039.555
   5884513.561 6   4585341.030 4  22123819.390    22123819.531
  -7444378.597 9  -5800810.465 9  20383918.538    20383917.693
   1956548.453 9   1524585.574 7  20686145.804    20686144.681
  12817468.551 4   9987635.234 4  23822105.689    23822100.057
   -637933.415 4   -497088.843 4  24204308.077    24204303.215
  -1467963.502 4  -1143866.509 4  24200395.474    24200391.727
   -533652.477 4   -415834.410 4  24939150.574    24939148.825
 98 11 14  1  0 30.0000000  0 10G13G 2G31G27G19G18G 7G15G26G 3
  -1357485.061 9  -1057777.664 6  21304572.548    21304573.307
  -7593700.447 8  -5917160.510 6  22153736.992    22153734.866
   5963687.395 6   4647035.019 4  22138885.869    22138885.530
  -7485124.142 9  -5832560.229 9  20376164.871    20376164.340
   1997179.205 9   1556245.902 7  20693877.384    20693876.279
  12931089.140 4  10076170.704 4  23843726.670    23843723.601
   -743991.367 4   -579731.174 4  24184125.766    24184121.729
  -1553077.459 4  -1210189.013 4  24184198.481    24184195.154
   -621656.665 4   -484408.955 4  24922403.896    24922402.673
        -0.35114        -0.90714  25380525.973    25380525.348
 98 11 14  1  1  0.0000000  0  9G13G 2G31G27G19G18G 7G15G26
  -1330261.967 8  -1036564.860 6  21309752.739    21309753.787
  -7642391.833 8  -5955101.818 6  22144471.197    22144469.282
   6043273.342 6   4709050.140 4  22154030.485    22154030.177
  -7525488.782 9  -5864013.179 9  20368483.701    20368483.044
   2038192.364 9   1588204.210 7  20701681.940    20701681.014
  13044772.532 4  10164755.137 4  23865360.220    23865356.415
   -849964.097 4   -662307.137 4  24163959.595    24163954.710
  -1638036.351 4  -1276390.678 4  24168031.019    24168028.156
   -709402.442 4   -552782.276 4  24905706.321    24905704.846
 98 11 14  1  1 30.0000000  0  9G13G 2G31G27G19G18G 7G15G 3
  -1302476.887 8  -1014914.148 6  21315040.028    21315040.646
  -7690858.983 8  -5992868.396 6  22135248.037    22135247.029
   6123280.980 6   4771393.831 4  22169255.215    22169255.028
  -7565461.014 9  -5895160.361 9  20360877.223    20360876.190
   2079597.224 9   1620467.739 7  20709561.033    20709560.102
  13158515.217 4  10253385.790 4  23887003.739    23887001.208
   -955834.967 4   -744803.717 4  24143813.597    24143808.612
  -1722829.760 4  -1342463.388 4  24151895.317    24151892.975
        -0.21714        -0.03914  25420738.742    25420737.226
 98 11 14  1  2  0.0000000  0  7G13G31G27G19G18G 7G15
  -1274131.388 8   -992826.742 6  21320434.103    21320435.156
   6203724.727 5   4834077.357 4  22184563.361    22184563.214
  -7605027.775 9  -5925991.589 9  20353347.937    20353347.296
   2121387.258 9   1653031.401 7  20717513.400    20717512.185
  13272322.231 4  10342066.547 4  23908661.371    23908657.370
  -1061579.636 4   -827201.942 4  24123690.552    24123686.510
  -1807457.683 4  -1408407.138 4  24135790.071    24135788.248
 98 11 14  1  2 30.0000000  0  9G13G31G27G19G18G 7G15G26G 3
  -1245234.307 8   -970309.537 6  21325933.185    21325934.459
   6284598.900 5   4897096.273 4  22199952.799    22199952.902
  -7644201.326 9  -5956516.418 9  20345893.409    20345892.931
   2163560.430 9   1685893.616 7  20725538.673    20725537.776
  13386185.638 4  10430791.239 4  23930329.735    23930325.957
  -1167202.849 4   -909505.571 4  24103591.000    24103586.735
  -1891927.013 4  -1474227.341 4  24119716.422    24119714.514
        -0.35914         0.45814  24855921.832    24855921.057
         0.09714        -0.12614  25461031.097    25461029.174
 98 11 14  1  3  0.0000000  0  8G13G31G27G19G18G 7G15G26
  -1215801.050 9   -947374.531 6  21331534.187    21331534.815
   6365864.344 5   4960420.065 4  22215416.982    22215416.906
  -7683010.607 9  -5986757.397 9  20338508.259    20338507.370
   2206123.446 9   1719059.605 7  20733638.163    20733637.189
  13500090.992 4  10519548.582 4  23952003.138    23952000.002
  -1272723.168 4   -991728.984 4  24083511.040    24083506.180
  -1976242.636 4  -1539927.749 4  24103672.447    24103669.440
    -86656.657 4    -67523.544 4  24839431.449    24839430.828
 98 11 14  1  3 30.0000000  0  9G13G 2G31G27G19G18G 7G15G26
  -1185795.391 8   -923993.492 6  21337244.051    21337245.004
         0.02818         0.21716  22098735.288    22098733.253
   6447529.963 5   5024055.694 4  22230957.695    22230957.706
  -7721448.887 9  -6016709.283 9  20331193.714    20331192.957
   2249118.216 9   1752562.026 7  20741819.973    20741818.822
  13614055.765 4  10608352.332 4  23973690.707    23973688.139
  -1378106.738 4  -1073845.881 4  24063456.682    24063451.990
  -2060377.092 4  -1605486.953 4  24087662.330    24087658.809
   -173008.840 4   -134810.889 4  24822999.322    24822998.430
 98 11 14  1  4  0.0000000  0 10G13G 2G31G27G19G18G 7G15G26G 3
  -1155212.063 8   -900162.325 6  21343063.957    21343064.388
    -47557.093 8    -37057.243 6  22089685.373    22089683.356
   6529566.827 5   5087980.632 4  22246568.444    22246568.871
  -7759533.228 9  -6046385.373 9  20323946.501    20323946.001
   2292542.164 9   1786398.875 7  20750083.094    20750082.335
  13728067.525 4  10697192.634 4  23995388.321    23995383.905
  -1483367.744 4  -1155867.247 4  24043426.196    24043423.051
  -2144334.054 4  -1670907.894 4  24071685.793    24071682.164
   -259060.290 4   -201863.997 4  24806624.078    24806622.887
         0.27914         0.36314  25521587.676    25521587.368
 98 11 14  1  4 30.0000000  0  9G13G 2G31G27G19G18G 7G15G26
  -1124046.417 8   -875877.415 6  21348994.740    21348994.737
    -94987.897 8    -74016.281 6  22080659.370    22080657.591
   6611944.588 5   5152171.204 4  22262244.304    22262244.623
  -7797284.520 9  -6075801.945 9  20316762.602    20316761.815
   2336408.101 9   1820580.128 7  20758430.418    20758429.634
  13842098.112 4  10786047.531 4  24017087.030    24017081.968
  -1588533.840 4  -1237814.678 4  24023412.879    24023409.827
  -2228116.283 4  -1736192.688 4  24055741.702    24055738.735
   -344803.095 4   -268676.593 4  24790308.069    24790307.258
 98 11 14  1  5  0.0000000  0 10G13G 2G31G27G19G18G 7G15G26G 3
  -1092279.691 8   -851124.123 6  21355039.678    21355040.501
   -142283.155 8   -110869.702 6  22071659.281    22071658.268
   6694668.379 5   5216631.408 4  22277985.882    22277986.602
  -7834682.701 9  -6104943.362 9  20309645.813    20309644.985
   2380717.621 9   1855107.030 7  20766862.308    20766861.172
  13956152.924 4  10874921.414 4  24038788.965    24038787.844
  -1693580.842 4  -1319669.327 4  24003423.281    24003417.959
  -2311713.918 4  -1801333.596 4  24039833.499    24039831.041
   -430254.960 4   -335262.604 4  24774047.194    24774046.913
        -0.43714        -0.17514  25562036.746    25562034.745
 98 11 14  1  5 30.0000000  0  9G 2G13G31G27G19G18G 7G15G26
   -189451.418 8   -147624.166 6  22062683.572    22062682.796
  -1059927.247 8   -825914.432 6  21361196.102    21361196.621
   6777745.650 5   5281367.059 4  22293794.955    22293794.983
  -7871722.251 9  -6133805.327 9  20302597.378    20302597.085
   2425438.235 9   1889954.266 7  20775372.371    20775371.389
  14070222.614 4  10963806.933 4  24060497.725    24060493.346
  -1798515.985 4  -1401436.760 4  23983453.962    23983450.789
  -2395136.574 4  -1866338.214 4  24023958.712    24023955.282
   -515444.129 4   -401643.899 4  24757836.948    24757836.233
 98 11 14  1  6  0.0000000  0 10G 2G13G31G27G19G18G 7G15G26G 3
   -236461.193 8   -184255.111 6  22053738.216    22053736.732
  -1026997.897 8   -800255.201 6  21367462.350    21367462.470
   6861209.544 5   5346403.959 4  22309677.688    22309677.533
  -7908364.609 9  -6162357.788 9  20295624.589    20295624.200
   2470564.911 9   1925117.916 7  20783959.627    20783959.071
  14184325.855 4  11052718.417 4  24082211.168    24082206.459
  -1903341.705 4  -1483118.999 4  23963506.233    23963501.305
  -2478371.346 4  -1931196.408 4  24008119.874    24008116.695
   -600358.849 4   -467811.347 4  24741678.764    24741677.310
        -0.13514                  25602535.933    25602535.180
 98 11 14  1  6 30.0000000  0  9G 2G13G31G27G19G18G 7G15G26
   -283301.368 8   -220753.919 6  22044824.931    22044822.860
   -993493.222 8   -774147.661 6  21373837.946    21373838.964
   6945092.402 5   5411767.338 4  22325639.958    22325639.547
  -7944598.943 9  -6190592.313 9  20288729.474    20288728.553
   2516085.257 9   1960588.321 7  20792621.835    20792620.995
  14298472.483 4  11141663.834 4  24103930.520    24103928.759
  -2008037.010 4  -1564699.583 4  23943583.340    23943578.626
  -2561408.014 4  -1995900.230 4  23992318.585    23992315.454
   -684996.578 4   -533762.994 4  24725573.014    24725571.427
 98 11 14  1  7  0.0000000  0 10G 2G13G31G27G19G18G 7G15G26G 3
   -329946.326 8   -257100.613 6  22035948.528    22035946.522
   -959421.484 8   -747598.259 6  21380321.489    21380322.424
   7029413.143 5   5477471.926 5  22341685.846    22341685.457
  -7980409.559 9  -6218496.671 9  20281914.886    20281914.151
   2561986.996 9   1996355.919 7  20801356.768    20801356.040
  14412689.973 4  11230664.497 4  24125666.233    24125661.055
  -2112592.791 4  -1646171.468 4  23923686.953    23923682.706
  -2644237.776 4  -2060442.824 4  23976556.213    23976553.625
   -769343.816 4   -599488.585 4  24709522.281    24709519.873
        -0.90414        -0.47314  25643098.969    25643097.318
 98 11 14  1  7 30.0000000  0  8G 2G13G31G27G19G18G 7G15
   -376390.739 8   -293291.031 6  22027110.121    22027108.236
   -924800.758 8   -720621.071 6  21386909.782    21386910.163
   7114177.736 5   5543522.391 4  22357815.586    22357815.513
  -8015792.108 9  -6246067.465 9  20275181.661    20275181.242
   2608281.211 9   2032429.341 7  20810166.349    20810165.514
  14526982.544 4  11319723.580 4  24147415.891    24147411.901
  -2217034.303 4  -1727554.288 4  23903811.879    23903807.899
  -2726859.005 4  -2124822.943 4  23960833.201    23960832.410
 98 11 14  1  8  0.0000000  0 10G 2G13G31G27G19G18G 7G15G26G 3
   -422618.470 8   -329312.622 6  22018313.112    22018311.392
   -889615.616 8   -693204.081 6  21393605.343    21393606.128
   7199375.455 5   5609910.348 4  22374028.108    22374028.069
  -8050737.387 9  -6273297.528 9  20268531.915    20268530.975
   2654986.383 9   2068822.986 6  20819053.914    20819052.910
  14641356.240 4  11408845.908 4  24169180.639    24169176.818
  -2321352.680 4  -1808841.184 4  23883960.014    23883955.454
  -2809259.975 4  -2189031.432 4  23945152.894    23945151.141
        -0.90314        -0.45914  24677604.537    24677601.465
        -0.79314        -0.41214  25683748.260    25683746.522
 98 11 14  1  8 30.0000000  0  8G 2G13G31G27G19G18G 7G15
   -468627.018 8   -365163.446 6  22009557.931    22009556.496
   -853857.470 8   -665340.592 6  21400409.903    21400410.728
   7284981.760 5   5676616.675 4  22390318.199    22390318.294
  -8085259.137 9  -6300197.567 9  20261962.667    20261961.807
   2702115.602 9   2105547.057 6  20828022.213    20828021.555
  14755801.738 4  11498024.179 4  24190957.155    24190952.911
  -2425532.679 4  -1890020.247 4  23864136.283    23864131.198
  -2891432.303 4  -2253061.711 4  23929516.220    23929513.655
 98 11 14  1  9  0.0000000  0  9G 2G13G31G27G19G18G 7G15G26
   -514455.390 8   -400873.864 6  22000837.241    22000835.943
   -817573.374 8   -637067.272 6  21407314.535    21407315.285
   7370932.091 5   5743591.055 4  22406673.902    22406673.758
  -8119394.971 9  -6326796.890 9  20255466.817    20255466.258
   2749633.274 9   2142573.818 6  20837064.540    20837063.916
  14870259.668 4  11587212.172 4  24212739.185    24212736.059
  -2529616.885 4  -1971124.659 4  23844329.911    23844324.394
  -2973419.811 4  -2316948.011 4  23913913.661    23913912.681
        -0.37214        -0.43514  24645934.425    24645933.196
 98 11 14  1  9 30.0000000  0  8G 2G13G31G27G19G18G 7G15
   -560099.513 8   -436440.689 6  21992151.472    21992150.154
   -780746.049 8   -608370.656 6  21414322.488    21414323.821
   7457234.599 5   5810839.874 4  22423096.541    22423096.580
  -8153131.058 9  -6353084.725 9  20249047.088    20249046.368
   2797548.031 9   2179909.992 6  20846182.482    20846181.565
  14984716.762 4  11676399.495 4  24234519.748    24234516.115
  -2633575.950 4  -2052131.556 4  23824546.323    23824542.659
  -3055202.884 4  -2380675.010 4  23898351.207    23898350.106
 98 11 14  1 10  0.0000000  0  9G 2G13G31G27G19G18G 7G15G26
   -605598.362 8   -471894.313 6  21983493.546    21983491.903
   -743393.370 8   -579264.679 6  21421430.354    21421431.360
   7543846.397 5   5878329.705 4  22439578.119    22439578.113
  -8186510.643 9  -6379094.766 9  20242695.213    20242694.611
   2845817.391 9   2217522.486 6  20855367.846    20855367.094
  15099125.800 4  11765549.361 4  24256290.704    24256286.872
  -2737420.721 4  -2133049.471 4  23804783.963    23804779.627
  -3136804.525 4  -2444260.621 4  23882823.818    23882821.103
         0.02214         0.34614  24614492.939    24614491.558
 98 11 14  1 10 30.0000000  0  8G 2G13G31G18G 7G27G19G15
   -650939.884 9   -507225.343 6  21974865.179    21974863.353
   -705494.401 8   -549733.017 6  21428642.363    21428642.701
   7630806.946 5   5946091.279 4  22456126.167    22456126.086
  15213514.835 4  11854683.667 4  24278057.918    24278055.301
  -2841111.169 4  -2213847.055 4  23785053.893    23785049.000
  -8219495.803 9  -6404797.474 9  20236418.249    20236418.089
   2894476.299 9   2255438.519 6  20864627.427    20864626.498
  -3218185.778 4  -2507674.540 4  23867337.436    23867334.575
 98 11 14  1 11  0.0000000  0  8G 2G13G27G19G31G18G 7G15
   -696152.670 9   -542456.062 6  21966261.489    21966259.727
   -667052.469 8   -519778.265 6  21435957.691    21435958.072
  -8252079.802 9  -6430187.583 9  20230217.637    20230216.929
   2943513.815 9   2293649.572 6  20873958.991    20873957.798
   7718102.758 5   6014114.107 5  22472737.896    22472738.111
  15327885.980 4  11943804.032 4  24299822.535    24299819.537
  -2944656.335 4  -2294531.476 4  23765349.853    23765346.462
  -3299352.656 4  -2570921.402 4  23851891.472    23851889.221
 98 11 14  1 11 30.0000000  0  9G 2G13G27G19G31G18G 7G15G26
   -741249.821 9   -577596.670 6  21957679.738    21957678.138
   -628068.766 8   -489401.348 6  21443376.060    21443376.498
  -8284268.471 9  -6455269.635 9  20224092.401    20224091.670
   2992935.540 9   2332160.008 6  20883363.755    20883362.844
   7805711.191 5   6082380.532 4  22489408.901    22489409.481
  15442241.372 4  12032912.094 4  24321583.765    24321580.001
  -3048062.725 4  -2375107.801 4  23745670.815    23745667.719
  -3380304.816 4  -2634000.953 4  23836487.467    23836484.448
        -0.74714        -0.34614  24567802.383    24567801.307
 98 11 14  1 12  0.0000000  0  8G 2G13G31G18G 7G27G19G15
   -786229.923 9   -612646.086 6  21949120.140    21949118.631
   -588548.036 8   -458605.974 6  21450896.589    21450897.089
   7893614.874 5   6150877.031 4  22506136.534    22506136.798
  15556583.642 4  12122009.937 4  24343342.236    24343338.353
  -3151341.716 4  -2455584.823 4  23726017.507    23726013.786
  -8316065.293 9  -6480046.360 9  20218041.580    20218041.231
   3042747.301 9   2370974.363 6  20892842.545    20892841.727
  -3461046.187 4  -2696916.244 4  23821122.993    23821119.890
 98 11 14  1 12 30.0000000  0  8G 2G13G27G19G31G18G 7G15
   -831066.339 9   -647583.543 6  21940588.118    21940586.799
   -548480.077 8   -427384.198 6  21458521.408    21458522.190
  -8347454.520 9  -6504505.478 9  20212068.441    20212067.681
   3092964.578 9   2410104.707 6  20902398.377    20902397.291
   7981823.205 5   6219610.920 4  22522921.731    22522922.354
  15670938.611 4  12211117.705 4  24365101.789    24365099.709
  -3254485.220 4  -2535956.259 4  23706390.588    23706387.962
  -3541561.797 4  -2759655.653 4  23805800.707    23805798.742
 98 11 14  1 13  0.0000000  0  9G 2G13G27G19G31G18G 7G15G26
   -875712.101 9   -682372.440 6  21932092.181    21932091.155
   -507832.537 8   -395710.799 6  21466256.468    21466256.448
  -8378426.484 9  -6528639.455 9  20206174.610    20206173.850
   3143609.493 9   2449568.276 6  20912035.863    20912034.835
   8070358.987 5   6288599.968 4  22539769.292    22539770.603
  15785322.007 4  12300247.634 4  24386868.921    24386865.892
  -3357469.193 4  -2616203.443 4  23686792.923    23686789.847
  -3621830.571 4  -2822202.707 4  23790525.773    23790523.154
        -0.05214         0.09114  24521678.337    24521677.114
 98 11 14  1 13 30.0000000  0  8G 2G13G27G19G31G18G 7G15
   -920147.055 9   -716997.078 6  21923636.470    21923635.561
   -466618.403 8   -363595.893 6  21474099.075    21474098.790
  -8408983.009 9  -6552449.715 9  20200359.799    20200359.483
   3194676.109 9   2489360.441 6  20921753.590    20921752.657
   8159240.010 5   6357858.036 4  22556682.803    22556683.874
  15899720.519 4  12389389.294 4  24408638.716    24408634.434
  -3460299.234 4  -2696330.615 4  23667224.425    23667221.502
  -3701852.156 4  -2884557.118 4  23775298.045    23775295.605
 98 11 14  1 14  0.0000000  0  9G 2G13G27G19G31G18G 7G15G26
   -964371.363 9   -751457.616 6  21915220.901    21915219.761
   -424844.950 8   -331045.155 6  21482048.171    21482048.712
  -8439113.063 9  -6575927.666 9  20194626.291    20194625.927
   3246167.944 9   2529483.947 6  20931552.143    20931551.133
   8248499.048 5   6427410.694 4  22573667.992    22573668.601
  16014136.022 4  12478544.225 4  24430410.247    24430407.696
  -3562971.978 4  -2776335.314 4  23647686.663    23647685.453
  -3781615.529 4  -2946710.355 4  23760119.078    23760117.842
        -0.04814        -0.95814  24491236.830    24491235.386
 98 11 14  1 14 30.0000000  0  8G 2G13G31G18G 7G27G19G15
  -1008410.959 9   -785774.238 6  21906840.692    21906839.141
   -382535.086 8   -298076.435 6  21490099.662    21490100.072
   8338122.385 5   6497247.190 4  22590722.924    22590723.286
  16128563.117 4  12567708.192 4  24452185.672    24452183.683
  -3665483.127 4  -2856214.034 4  23628179.748    23628178.328
  -8468828.204 9  -6599082.304 9  20188971.601    20188970.970
   3298080.168 9   2569935.029 6  20941430.750    20941430.034
  -3861127.793 4  -3008667.907 4  23744988.687    23744986.709
 98 11 14  1 15  0.0000000  0  8G 2G27G13G19G31G18G 7G15
  -1052286.799 9   -819963.228 6  21898491.519    21898489.789
  -8498113.522 9  -6621902.017 9  20183398.681    20183398.538
   -339710.551 8   -264706.689 6  21498248.875    21498249.063
   3350408.399 9   2610710.272 6  20951388.530    20951387.632
   8428103.279 5   6567362.271 4  22607845.376    22607845.757
  16242979.634 4  12656863.883 4  24473959.551    24473955.758
  -3767832.134 4  -2935966.420 4  23608703.221    23608702.344
  -3940393.775 4  -3070433.569 4  23729904.968    23729902.768
 98 11 14  1 15 30.0000000  0  9G 2G27G13G19G31G18G 7G15G26
  -1096006.396 9   -854030.465 6  21890171.972    21890170.300
  -8526944.458 9  -6644367.673 9  20177912.370    20177911.982
   -296362.387 8   -230928.917 6  21506497.671    21506498.244
   3403164.027 9   2651818.548 6  20961427.706    20961426.494
   8518444.924 5   6637758.459 4  22625036.506    22625037.257
  16357392.969 4  12746017.117 4  24495730.537    24495728.510
  -3870011.558 4  -3015586.718 4  23589258.760    23589258.207
  -4019390.387 4  -3131989.343 4  23714873.171    23714871.070
        -0.10114        -0.52514  24446046.657    24446044.763
 98 11 14  1 16  0.0000000  0  8G 2G13G31G18G 7G27G19G15
  -1139613.250 9   -888009.870 6  21881873.805    21881872.204
   -252516.566 8   -196763.352 6  21514841.292    21514841.360
   8609090.780 5   6708391.726 4  22642286.051    22642286.651
  16471763.698 4  12835137.183 4  24517494.268    24517492.284
  -3972041.217 4  -3095090.266 4  23569844.141    23569841.092
  -8555368.737 9  -6666516.454 9  20172503.584    20172502.830
   3456315.635 9   2693235.381 6  20971542.053    20971541.027
  -4098146.309 4  -3193357.530 4  23699886.317    23699884.463
 98 11 14  1 16 30.0000000  0  8G 2G27G13G19G31G18G 7G15
  -1183074.968 9   -921876.182 6  21873603.233    21873601.659
  -8583368.317 9  -6688334.305 9  20167175.438    20167174.979
   -208143.675 8   -162187.089 6  21523284.958    21523285.108
   3509863.910 9   2734961.303 6  20981731.868    20981730.851
   8700038.053 5   6779259.843 4  22659592.383    22659593.548
  16586100.844 4  12924231.019 4  24539252.287    24539249.243
  -4073900.709 4  -3174461.203 4  23550460.289    23550457.469
  -4176647.233 4  -3254527.068 4  23684947.944    23684945.136
 98 11 14  1 17  0.0000000  0  9G 2G27G13G19G31G18G 7G15G26
  -1226342.369 9   -955591.050 6  21865369.773    21865368.229
  -8610901.007 9  -6709788.350 9  20161936.114    20161935.511
   -163182.756 8   -127152.621 6  21531840.738    21531841.506
   3563831.104 9   2777013.659 6  20992001.402    20992000.227
   8791334.278 5   6850399.866 4  22676965.145    22676966.919
  16700432.155 4  13013320.336 4  24561008.701    24561005.924
  -4175570.008 4  -3253684.001 4  23531112.944    23531109.989
  -4254852.569 4  -3315466.250 4  23670066.024    23670063.751
         0.03714        -0.49114  24401434.316    24401432.275
 98 11 14  1 17 30.0000000  0  8G 2G27G13G19G31G 7G15G26
  -1269430.875 9   -989166.505 6  21857170.304    21857168.678
  -8638012.416 9  -6730914.120 9  20156776.994    20156776.221
   -117655.127 8    -91676.563 6  21540504.455    21540504.897
   3618178.718 9   2819362.446 6  21002343.578    21002342.606
   8882944.142 5   6921784.288 4  22694397.795    22694399.292
  -4277077.088 4  -3332780.357 4  23511797.058    23511794.335
  -4332789.501 4  -3376196.288 4  23655234.613    23655232.015
    -77451.547 4    -60352.495 4  24386695.875    24386693.967
 98 11 14  1 18  0.0000000  0  9G 2G27G13G19G31G18G 7G15G26
  -1312353.987 9  -1022613.064 6  21849002.424    21849000.908
  -8664725.135 9  -6751729.223 9  20151693.803    20151693.342
    -71609.022 8    -55796.502 6  21549266.663    21549266.929
   3672862.279 9   2861973.006 6  21012749.507    21012748.583
   8974834.120 5   6993386.963 4  22711883.620    22711885.047
        -0.35914         0.49314  24604501.354    24604499.356
  -4378447.096 4  -3411769.869 4  23492508.046    23492504.758
  -4410495.381 4  -3436746.286 4  23640447.182    23640445.525
   -154592.348 4   -120462.309 4  24372016.389    24372015.010
 98 11 14  1 18 30.0000000  0  9G 2G27G13G19G31G18G 7G15G26
  -1355075.930 9  -1055902.873 6  21840872.585    21840871.311
  -8690993.165 9  -6772197.816 9  20146695.051    20146694.594
    -25019.805 7    -19493.225 6  21558132.231    21558132.980
   3727909.748 9   2904867.128 6  21023224.783    21023223.478
   9067051.639 5   7065244.877 4  22729432.524    22729433.585
    114248.418 4     89025.507 4  24626241.539    24626239.049
  -4479660.386 4  -3490637.289 4  23473247.016    23473243.466
  -4487933.323 4  -3497087.498 4  23625711.009    23625709.244
   -231366.469 4   -180286.343 4  24357405.908    24357404.498
 98 11 14  1 19  0.0000000  0  8G 2G13G19G27G31G 7G15G26
  -1397601.046 9  -1089039.299 6  21832780.225    21832778.836
     22098.558 8     17222.361 6  21567098.763    21567099.251
   3783338.883 9   2948058.650 6  21033772.557    21033771.492
  -8716811.217 9  -6792315.781 9  20141781.975    20141781.490
   9159601.026 5   7137361.370 4  22747043.784    22747045.085
  -4580706.341 4  -3569374.320 4  23454017.231    23454015.249
  -4565089.429 4  -3557209.107 4  23611029.139    23611026.820
   -307754.131 4   -239809.219 4  24342870.372    24342868.904
 98 11 14  1 19 30.0000000  0  8G 2G27G13G19G31G 7G15G26
  -1439941.269 9  -1122031.650 6  21824723.232    21824721.715
  -8742188.489 9  -6812090.287 9  20136952.835    20136952.642
     69708.848 8     54321.276 6  21576158.803    21576158.969
   3839156.181 9   2991552.639 6  21044394.143    21044393.134
   9252464.095 5   7209722.257 4  22764715.313    22764716.268
  -4681578.845 4  -3647976.180 4  23434823.226    23434820.388
  -4641966.388 4  -3617113.197 4  23596399.928    23596396.945
   -383754.529 4   -299030.357 4  24328408.216    24328407.056
 98 11 14  1 20  0.0000000  0  9G 2G27G13G19G31G18G 7G15G26
  -1482119.737 9  -1154897.965 6  21816696.812    21816695.151
  -8767134.592 9  -6831528.815 9  20132205.927    20132205.369
    117794.594 8     91790.682 6  21585309.320    21585309.768
   3895361.020 9   3035348.600 6  21055089.518    21055088.505
   9345634.989 5   7282322.975 4  22782445.141    22782446.559
        -0.27114        -0.06714  24691458.983    24691456.737
  -4782295.165 4  -3726456.339 4  23415657.414    23415653.754
  -4718571.482 4  -3676805.441 4  23581822.568    23581820.910
   -459386.682 4   -357964.661 4  24314015.054    24314014.798
 98 11 14  1 20 30.0000000  0  8G 2G13G19G31G27G18G 7G15
  -1524146.299 9  -1187645.910 6  21808699.394    21808697.722
    166362.903 8    129636.103 6  21594551.630    21594552.323
   3951968.980 9   3079458.685 6  21065861.674    21065860.681
   9439113.309 5   7355163.269 4  22800233.200    22800234.278
  -8791663.187 9  -6850642.013 9  20127538.299    20127537.619
    114177.922 4     88969.919 4  24713186.583    24713184.051
  -4882849.893 4  -3804810.540 4  23396521.333    23396517.285
  -4794898.872 4  -3736281.281 4  23567298.136    23567295.365
 98 11 14  1 21  0.0000000  0  8G 2G27G13G19G31G18G 7G15
  -1566006.105 9  -1220263.917 6  21800733.797    21800732.172
  -8815754.922 9  -6869414.796 9  20122953.749    20122953.457
    215427.014 8    167867.859 6  21603888.221    21603888.903
   4009003.811 9   3123901.396 6  21076715.101    21076714.188
   9532903.800 5   7428246.834 4  22818080.837    22818081.877
    228313.120 4    177906.414 4  24734905.525    24734903.706
  -4983211.472 4  -3883014.286 4  23377422.637    23377420.554
  -4870929.960 4  -3795526.243 4  23552830.362    23552825.901
 98 11 14  1 21 30.0000000  0  8G 2G27G13G19G31G 7G15G26
  -1607691.000 9  -1252745.635 6  21792801.424    21792799.815
  -8839401.898 9  -6887841.018 9  20118453.772    20118453.270
    264993.136 8    206490.791 6  21613320.338    21613321.414
   4066465.805 9   3168676.958 6  21087649.611    21087648.504
   9627013.732 5   7501579.315 4  22835989.526    22835990.370
  -5083384.278 4  -3961070.914 4  23358361.262    23358358.111
  -4946659.957 4  -3854536.579 4  23538418.816    23538415.672
        -0.28414        -0.28814  24271258.754    24271257.516
 98 11 14  1 22  0.0000000  0  9G 2G27G13G19G31G18G 7G15G26
  -1649229.789 9  -1285113.509 6  21784896.855    21784895.509
  -8862620.162 9  -6905933.170 9  20114035.624    20114034.936
    315051.024 8    245496.911 6  21622845.878    21622847.066
   4124324.586 9   3213761.706 6  21098659.936    21098658.564
   9721411.247 5   7575135.851 4  22853952.648    22853953.442
        -0.54314        -0.90814  24778314.308    24778312.200
  -5183391.822 4  -4038998.713 4  23339330.678    23339326.109
  -5022111.729 4  -3913330.098 4  23524060.074    23524058.304
    -74189.489 4                  24257140.691    24257139.415
 98 11 14  1 22 30.0000000  0  7G 2G27G13G19G31G 7G15
  -1690635.557 9  -1317377.738 6  21777017.483    21777016.507
  -8885409.216 9  -6923690.872 9  20109698.902    20109698.658
    365604.033 8    284888.850 6  21632465.916    21632466.788
   4182573.120 9   3259150.156 6  21109744.428    21109743.268
   9816071.805 5   7648897.375 4  22871965.697    22871966.544
  -5283235.960 4  -4116799.242 4  23320329.182    23320327.231
  -5097287.550 4  -3971908.602 4  23509754.356    23509752.528
 98 11 14  1 23  0.0000000  0  9G 2G27G13G19G31G26G 7G15G18
  -1731891.511 9  -1349525.214 6  21769166.557    21769165.730
  -8907732.538 9  -6941085.662 9  20105450.875    20105450.558
    416667.081 8    324678.223 6  21642182.917    21642184.253
   4241227.489 9   3304854.842 6  21120905.949    21120904.758
   9911009.194 5   7722874.569 4  22890031.829    22890032.683
        -0.07514        -0.08414  24229106.761    24229106.245
  -5382900.851 4  -4194460.099 4  23301363.877    23301362.546
  -5172164.296 4  -4030254.045 4  23495506.433    23495504.069
        -0.36614        -0.24714  24821672.480    24821670.009
 98 11 14  1 23 30.0000000  0  8G 2G13G27G19G31G 7G15G18
  -1772992.044 9  -1381551.591 6  21761345.428    21761344.131
    468258.602 8    364879.386 6  21652000.315    21652001.727
  -8929585.143 9  -6958113.657 9  20101292.455    20101292.001
   4300290.418 9   3350877.886 6  21132145.070    21132143.905
  10006227.405 5   7797070.610 4  22908151.298    22908152.417
  -5482383.433 4  -4271978.857 4  23282433.722    23282430.515
  -5246732.945 4  -4088359.410 4  23481316.543    23481314.074
    113854.360 4     88717.702 4  24843337.819    24843335.211
 98 11 14  1 24  0.0000000  0  7G 2G13G19G27G31G 7G15
  -1813925.800 9  -1413448.005 6  21753555.953    21753554.665
    520405.957 8    405513.668 5  21661923.509    21661924.579
   4359773.349 9   3397228.206 6  21143464.254    21143463.546
  -8950956.321 9  -6974766.513 9  20097225.666    20097225.492
  10101730.913 4   7871488.949 4  22926324.877    22926326.261
  -5581653.516 4  -4349332.057 4  23263543.480    23263539.751
  -5320972.907 4  -4146208.661 4  23467188.763    23467185.922
 98 11 14  1 24 30.0000000  0  8G 2G27G13G19G31G26G 7G15
  -1854688.988 9  -1445211.509 6  21745798.891    21745797.715
  -8971862.652 9  -6991057.149 9  20093247.242    20093246.975
    573082.461 8    446560.271 5  21671947.512    21671948.677
   4419659.613 9   3443892.811 6  21154860.134    21154859.440
  10197508.754 5   7946121.058 4  22944550.973    22944552.177
        -0.85214        -0.80314  24187627.938    24187626.919
  -5680718.879 4  -4426525.736 4  23244691.273    23244688.826
  -5394893.305 4  -4203808.877 4  23453121.943    23453119.901
 98 11 14  1 25  0.0000000  0  9G 2G27G13G19G31G26G 7G15G18
  -1895262.208 9  -1476826.988 6  21738078.197    21738076.844
  -8992300.540 9  -7006982.760 9  20089358.079    20089357.628
    626278.614 8    488011.793 5  21682070.425    21682071.401
   4479937.294 9   3490862.417 6  21166330.756    21166329.876
  10293580.002 5   8020981.807 4  22962832.640    22962833.425
    -71859.932 4    -55994.914 4  24173953.390    24173952.123
  -5779565.680 4  -4503549.123 4  23225881.131    23225879.105
  -5468482.236 4  -4261150.818 4  23439118.839    23439115.893
        -0.19614        -0.29114  24908294.427    24908292.084
 98 11 14  1 25 30.0000000  0  8G 2G13G27G19G31G26G 7G15
  -1935677.989 9  -1508319.787 6  21730387.344    21730385.654
    679963.544 8    529844.191 5  21692286.366    21692287.274
  -9012322.424 9  -7022584.205 9  20085548.084    20085547.686
   4540559.382 9   3538100.395 6  21177866.975    21177866.104
  10389895.557 5   8096032.914 4  22981160.868    22981161.733
   -143377.264 4   -111722.729 4  24160344.405    24160341.666
  -5878221.525 4  -4580423.699 4  23207108.489    23207104.801
  -5541772.484 4  -4318260.019 4  23425171.384    23425169.537
 98 11 14  1 26  0.0000000  0  8G 2G27G13G19G31G26G 7G15
  -1975915.764 9  -1539673.870 6  21722730.375    21722728.594
  -9031908.808 9  -7037846.295 9  20081820.916    20081820.237
    734138.276 8    572058.252 6  21702595.704    21702596.613
   4601536.723 9   3585615.190 6  21189470.748    21189469.423
  10486474.020 5   8171288.892 4  22999539.157    22999539.640
   -214550.527 4   -167182.415 4  24146800.399    24146798.573
  -5976665.202 4  -4657132.953 4  23188374.253    23188371.975
  -5614743.702 4  -4375120.620 4  23411285.896    23411283.875
 98 11 14  1 26 30.0000000  0  9G 2G27G13G19G31G26G 7G15G18
  -2015955.679 9  -1570873.769 6  21715110.996    21715109.489
  -9051034.093 9  -7052749.083 9  20078181.487    20078180.716
    788812.753 8    614661.716 6  21713000.212    21713001.083
   4662889.629 9   3633422.636 6  21201145.697    21201144.330
  10583332.098 5   8246762.763 4  23017970.431    23017971.331
   -285354.320 4   -222354.253 4  24133326.766    24133324.946
  -6074885.133 4  -4733667.895 4  23169683.343    23169681.690
  -5687380.367 4  -4431720.517 4  23397463.081    23397461.585
        -0.45214        -0.17214  24973141.217    24973138.199
 98 11 14  1 27  0.0000000  0  8G 2G27G13G19G31G26G 7G15
  -2055827.396 9  -1601942.604 6  21707523.647    21707522.090
  -9069713.450 9  -7067304.392 9  20074626.911    20074626.374
    843972.277 8    657643.131 6  21723496.874    21723497.281
   4724597.411 8   3681506.614 6  21212888.192    21212887.157
  10680439.982 5   8322431.298 4  23036449.439    23036450.727
   -355787.808 4   -277237.537 4  24119924.032    24119922.153
  -6172921.120 4  -4810059.485 4  23151028.302    23151025.829
  -5759700.989 4  -4488074.147 4  23383700.902    23383699.021
 98 11 14  1 27 30.0000000  0  8G 2G27G13G19G31G26G 7G15
  -2095512.721 9  -1632866.199 6  21699971.742    21699970.079
  -9087924.549 9  -7081494.823 9  20071161.413    20071160.773
    899634.373 8    701016.160 5  21734089.012    21734089.337
   4786695.085 8   3729894.407 6  21224705.147    21224703.762
  10777807.065 5   8398301.778 4  23054977.653    23054978.852
   -425828.008 4   -331814.361 4  24106596.357    24106594.216
  -6270761.429 4  -4886298.599 4  23132409.696    23132406.875
  -5831691.071 4  -4544170.208 4  23370001.214    23369999.853
 98 11 14  1 28  0.0000000  0  9G 2G27G13G19G31G26G 7G15G18
  -2135003.142 9  -1663637.925 6  21692456.889    21692455.204
  -9105644.860 9  -7095302.820 9  20067789.222    20067788.885
    955793.702 8    744776.655 5  21744775.818    21744776.474
   4849205.630 8   3778603.913 6  21236600.394    21236599.151
  10875450.242 4   8474387.383 4  23073558.666    23073560.150
   -495452.468 4   -386067.209 4  24093347.879    24093344.964
  -6368401.679 4  -4962381.812 4  23113829.184    23113826.429
  -5903341.874 4  -4600001.931 4  23356366.504    23356365.143
        -0.24714         0.00814  25037855.710    25037852.194
 98 11 14  1 28 30.0000000  0  8G 2G27G13G19G31G26G 7G15
  -2174309.297 9  -1694266.063 6  21684977.144    21684975.679
  -9122881.105 9  -7108733.623 9  20064509.123    20064509.084
   1012433.210 8    788911.306 5  21755553.901    21755554.053
   4912120.330 8   3827628.352 6  21248572.667    21248571.816
  10973352.909 4   8550675.164 4  23092188.619    23092189.983
   -564652.011 4   -439988.969 4  24080178.613    24080177.127
  -6465853.555 4  -5038318.270 4  23095284.346    23095282.739
  -5974658.630 4  -4655573.335 4  23342795.764    23342793.415
 98 11 14  1 29  0.0000000  0  9G 2G27G13G19G31G26G 7G15G18
  -2213438.880 9  -1724756.604 6  21677531.020    21677529.729
  -9139630.722 9  -7121785.237 9  20061321.839    20061321.429
   1069542.430 7    833411.968 5  21766421.535    21766421.567
   4975431.125 8   3876961.433 6  21260620.411    21260619.281
  11071526.641 4   8627174.196 4  23110870.381    23110871.821
   -633424.061 4   -493577.653 4  24067092.346    24067089.996
  -6563114.371 5  -5114105.849 4  23076776.429    23076774.189
  -6045633.478 4  -4710878.327 4  23329289.756    23329287.715
        -0.27314         0.33714  25080914.278    25080911.058
 98 11 14  1 29 30.0000000  0  8G 2G27G13G19G31G26G 7G15
  -2252404.331 9  -1755119.252 7  21670116.054    21670115.004
  -9155892.110 9  -7134456.412 9  20058227.489    20058227.080
   1127121.540 7    878278.778 5  21777378.305    21777379.018
   5039144.144 8   3926607.931 6  21272744.524    21272743.232
  11169983.432 5   8703893.777 4  23129606.076    23129607.629
   -701772.979 4   -546836.624 4  24054085.668    24054083.609
  -6660156.925 4  -5189723.354 4  23058309.700    23058306.773
  -6116262.047 4  -4765913.505 4  23315849.843    23315847.837
 98 11 14  1 30  0.0000000  0  9G 2G27G13G19G31G26G 7G15G18
  -2291221.597 9  -1785366.438 7  21662729.400    21662727.927
  -9171669.045 9  -7146750.093 9  20055225.173    20055224.993
   1185168.272 7    923509.970 5  21788424.018    21788424.690
   5103253.538 8   3976563.298 6  21284944.215    21284943.023
  11268710.968 5   8780824.294 4  23148393.198    23148394.485
   -769692.077 4   -599760.671 4  24041161.883    24041159.577
  -6756984.060 4  -5265172.997 4  23039884.100    23039881.090
  -6186541.762 4  -4820676.842 4  23302476.220    23302472.913
         0.30614         0.14214  25123912.864    25123910.801
